Wetterdaten: Samstag, 15.10.2022
Datum Zeit Temp. 2m Temp +5 cm Feuchte A. Luftdruck Regen Wind Richtung Richtung Sonnenschein UV Solar Taupunkt Windchill Windben
15.10.2022 00:00 11,8 C 11,7 C 94 % 1009,6 hPa 0,0 l/m 3,7 km/h (1 Bft) S-SW 205 0 min 0,0 UV-I 0 W/m 10,9 C 11,8 C 6,4 km/h (2 Bft)
15.10.2022 00:03 11,9 C 11,7 C 94 % 1009,6 hPa 0,0 l/m 3,3 km/h (1 Bft) SW 217 0 min 0,0 UV-I 0 W/m 11,0 C 11,9 C 4,8 km/h (1 Bft)
15.10.2022 00:06 11,9 C 11,7 C 94 % 1009,6 hPa 0,0 l/m 4,1 km/h (1 Bft) SW 215 0 min 0,0 UV-I 0 W/m 11,0 C 11,9 C 6,4 km/h (2 Bft)
15.10.2022 00:09 11,8 C 11,7 C 94 % 1009,6 hPa 0,0 l/m 3,0 km/h (1 Bft) SW 215 0 min 0,0 UV-I 0 W/m 10,9 C 11,8 C 4,8 km/h (1 Bft)
15.10.2022 00:12 11,8 C 11,7 C 94 % 1009,6 hPa 0,0 l/m 2,0 km/h (1 Bft) SW 215 0 min 0,0 UV-I 0 W/m 10,9 C 11,8 C 3,2 km/h (1 Bft)
15.10.2022 00:15 11,8 C 11,7 C 94 % 1009,5 hPa 0,0 l/m 3,4 km/h (1 Bft) S-SW 211 0 min 0,0 UV-I 0 W/m 10,9 C 11,8 C 6,4 km/h (2 Bft)
15.10.2022 00:18 11,8 C 11,7 C 94 % 1009,4 hPa 0,0 l/m 1,1 km/h (1 Bft) S-SW 211 0 min 0,0 UV-I 0 W/m 10,9 C 11,8 C 3,2 km/h (1 Bft)
15.10.2022 00:21 11,8 C 11,7 C 94 % 1009,5 hPa 0,0 l/m 1,6 km/h (1 Bft) S-SW 211 0 min 0,0 UV-I 0 W/m 10,9 C 11,8 C 3,2 km/h (1 Bft)
15.10.2022 00:24 11,8 C 11,7 C 94 % 1009,5 hPa 0,0 l/m 1,7 km/h (1 Bft) S-SW 211 0 min 0,0 UV-I 0 W/m 10,9 C 11,8 C 3,2 km/h (1 Bft)
15.10.2022 00:27 11,8 C 11,7 C 94 % 1009,5 hPa 0,0 l/m 2,1 km/h (1 Bft) S-SW 213 0 min 0,0 UV-I 0 W/m 10,9 C 11,8 C 4,8 km/h (1 Bft)
15.10.2022 00:30 11,8 C 11,7 C 94 % 1009,4 hPa 0,0 l/m 0,8 km/h (0 Bft) S-SW 213 0 min 0,0 UV-I 0 W/m 10,9 C 11,8 C 1,6 km/h (1 Bft)
15.10.2022 00:33 11,8 C 11,7 C 94 % 1009,3 hPa 0,0 l/m 1,0 km/h (0 Bft) S-SW 213 0 min 0,0 UV-I 0 W/m 10,9 C 11,8 C 1,6 km/h (1 Bft)
15.10.2022 00:36 11,8 C 11,7 C 94 % 1009,3 hPa 0,0 l/m 0,2 km/h (0 Bft) S-SW 213 0 min 0,0 UV-I 0 W/m 10,9 C 11,8 C 1,6 km/h (1 Bft)
15.10.2022 00:39 11,8 C 11,7 C 94 % 1009,3 hPa 0,0 l/m 0,0 km/h (0 Bft) S-SW 213 0 min 0,0 UV-I 0 W/m 10,9 C 11,8 C 1,6 km/h (1 Bft)
15.10.2022 00:42 11,8 C 11,7 C 94 % 1009,3 hPa 0,0 l/m 0,9 km/h (0 Bft) S-SW 213 0 min 0,0 UV-I 0 W/m 10,9 C 11,8 C 1,6 km/h (1 Bft)
15.10.2022 00:45 11,8 C 11,7 C 94 % 1009,4 hPa 0,0 l/m 0,6 km/h (0 Bft) S-SW 213 0 min 0,0 UV-I 0 W/m 10,9 C 11,8 C 1,6 km/h (1 Bft)
15.10.2022 00:48 11,8 C 11,7 C 94 % 1009,5 hPa 0,0 l/m 0,7 km/h (0 Bft) S-SW 213 0 min 0,0 UV-I 0 W/m 10,9 C 11,8 C 3,2 km/h (1 Bft)
15.10.2022 00:51 11,8 C 11,7 C 94 % 1009,4 hPa 0,0 l/m 1,7 km/h (1 Bft) S-SW 213 0 min 0,0 UV-I 0 W/m 10,9 C 11,8 C 3,2 km/h (1 Bft)
15.10.2022 00:54 11,8 C 11,7 C 94 % 1009,5 hPa 0,0 l/m 0,4 km/h (0 Bft) S-SW 213 0 min 0,0 UV-I 0 W/m 10,9 C 11,8 C 1,6 km/h (1 Bft)
15.10.2022 00:57 11,8 C 11,7 C 94 % 1009,5 hPa 0,0 l/m 1,3 km/h (1 Bft) S-SW 213 0 min 0,0 UV-I 0 W/m 10,9 C 11,8 C 3,2 km/h (1 Bft)
15.10.2022 01:00 11,8 C 11,7 C 94 % 1009,5 hPa 0,2 l/m 1,1 km/h (1 Bft) S-SW 213 0 min 0,0 UV-I 0 W/m 10,9 C 11,8 C 3,2 km/h (1 Bft)
15.10.2022 01:03 11,8 C 11,7 C 94 % 1009,4 hPa 0,0 l/m 0,8 km/h (0 Bft) S-SW 213 0 min 0,0 UV-I 0 W/m 10,9 C 11,8 C 3,2 km/h (1 Bft)
15.10.2022 01:06 11,8 C 11,1 C 94 % 1009,5 hPa 0,0 l/m 0,9 km/h (0 Bft) S-SW 213 0 min 0,0 UV-I 0 W/m 10,9 C 11,8 C 1,6 km/h (1 Bft)
15.10.2022 01:09 11,8 C 11,1 C 94 % 1009,5 hPa 0,0 l/m 1,1 km/h (1 Bft) S-SW 213 0 min 0,0 UV-I 0 W/m 10,9 C 11,8 C 1,6 km/h (1 Bft)
15.10.2022 01:12 11,8 C 11,1 C 94 % 1009,4 hPa 0,0 l/m 1,8 km/h (1 Bft) S-SW 213 0 min 0,0 UV-I 0 W/m 10,9 C 11,8 C 3,2 km/h (1 Bft)
15.10.2022 01:15 11,8 C 11,1 C 95 % 1009,4 hPa 0,0 l/m 0,4 km/h (0 Bft) S-SW 213 0 min 0,0 UV-I 0 W/m 11,0 C 11,8 C 1,6 km/h (1 Bft)
15.10.2022 01:18 11,8 C 11,1 C 95 % 1009,4 hPa 0,0 l/m 0,3 km/h (0 Bft) S-SW 213 0 min 0,0 UV-I 0 W/m 11,0 C 11,8 C 1,6 km/h (1 Bft)
15.10.2022 01:21 11,8 C 11,1 C 95 % 1009,4 hPa 0,0 l/m 0,0 km/h (0 Bft) S-SW 213 0 min 0,0 UV-I 0 W/m 11,0 C 11,8 C 1,6 km/h (1 Bft)
15.10.2022 01:24 11,8 C 11,1 C 95 % 1009,4 hPa 0,0 l/m 0,0 km/h (0 Bft) S-SW 213 0 min 0,0 UV-I 0 W/m 11,0 C 11,8 C 1,6 km/h (1 Bft)
15.10.2022 01:27 11,8 C 11,1 C 95 % 1009,3 hPa 0,0 l/m 0,0 km/h (0 Bft) S-SW 213 0 min 0,0 UV-I 0 W/m 11,0 C 11,8 C 0,0 km/h (0 Bft)
15.10.2022 01:30 11,8 C 11,1 C 95 % 1009,3 hPa 0,2 l/m 0,0 km/h (0 Bft) S-SW 213 0 min 0,0 UV-I 0 W/m 11,0 C 11,8 C 0,0 km/h (0 Bft)
15.10.2022 01:33 11,7 C 11,1 C 95 % 1009,4 hPa 0,0 l/m 0,0 km/h (0 Bft) S-SW 213 0 min 0,0 UV-I 0 W/m 10,9 C 11,7 C 0,0 km/h (0 Bft)
15.10.2022 01:36 11,7 C 11,1 C 95 % 1009,4 hPa 0,0 l/m 0,0 km/h (0 Bft) S-SW 213 0 min 0,0 UV-I 0 W/m 10,9 C 11,7 C 0,0 km/h (0 Bft)
15.10.2022 01:39 11,7 C 11,1 C 95 % 1009,5 hPa 0,0 l/m 0,0 km/h (0 Bft) S-SW 213 0 min 0,0 UV-I 0 W/m 10,9 C 11,7 C 0,0 km/h (0 Bft)
15.10.2022 01:42 11,8 C 11,1 C 95 % 1009,5 hPa 0,0 l/m 0,0 km/h (0 Bft) S-SW 213 0 min 0,0 UV-I 0 W/m 11,0 C 11,8 C 0,0 km/h (0 Bft)
15.10.2022 01:45 11,7 C 11,1 C 95 % 1009,4 hPa 0,0 l/m 0,0 km/h (0 Bft) S-SW 213 0 min 0,0 UV-I 0 W/m 10,9 C 11,7 C 0,0 km/h (0 Bft)
15.10.2022 01:48 11,8 C 11,1 C 95 % 1009,4 hPa 0,0 l/m 0,4 km/h (0 Bft) S-SW 213 0 min 0,0 UV-I 0 W/m 11,0 C 11,8 C 1,6 km/h (1 Bft)
15.10.2022 01:51 11,7 C 11,1 C 95 % 1009,5 hPa 0,0 l/m 0,0 km/h (0 Bft) S-SW 213 0 min 0,0 UV-I 0 W/m 10,9 C 11,7 C 1,6 km/h (1 Bft)
15.10.2022 01:54 11,7 C 11,1 C 95 % 1009,4 hPa 0,0 l/m 0,0 km/h (0 Bft) S-SW 213 0 min 0,0 UV-I 0 W/m 10,9 C 11,7 C 1,6 km/h (1 Bft)
15.10.2022 01:57 11,7 C 11,1 C 95 % 1009,3 hPa 0,0 l/m 0,0 km/h (0 Bft) S-SW 213 0 min 0,0 UV-I 0 W/m 10,9 C 11,7 C 0,0 km/h (0 Bft)
15.10.2022 02:00 11,7 C 11,1 C 95 % 1009,5 hPa 0,0 l/m 0,2 km/h (0 Bft) S-SW 213 0 min 0,0 UV-I 0 W/m 10,9 C 11,7 C 1,6 km/h (1 Bft)
15.10.2022 02:03 11,8 C 11,1 C 95 % 1009,4 hPa 0,0 l/m 0,8 km/h (0 Bft) S-SW 213 0 min 0,0 UV-I 0 W/m 11,0 C 11,8 C 1,6 km/h (1 Bft)
15.10.2022 02:06 11,7 C 11,1 C 95 % 1009,3 hPa 0,0 l/m 1,0 km/h (0 Bft) S-SW 213 0 min 0,0 UV-I 0 W/m 10,9 C 11,7 C 1,6 km/h (1 Bft)
15.10.2022 02:09 11,7 C 11,1 C 95 % 1009,4 hPa 0,0 l/m 0,8 km/h (0 Bft) S-SW 213 0 min 0,0 UV-I 0 W/m 10,9 C 11,7 C 1,6 km/h (1 Bft)
15.10.2022 02:12 11,7 C 11,1 C 95 % 1009,5 hPa 0,0 l/m 0,4 km/h (0 Bft) S-SW 213 0 min 0,0 UV-I 0 W/m 10,9 C 11,7 C 1,6 km/h (1 Bft)
15.10.2022 02:15 11,7 C 11,1 C 95 % 1009,4 hPa 0,0 l/m 0,0 km/h (0 Bft) S-SW 213 0 min 0,0 UV-I 0 W/m 10,9 C 11,7 C 0,0 km/h (0 Bft)
15.10.2022 02:18 11,7 C 11,1 C 95 % 1009,4 hPa 0,0 l/m 0,0 km/h (0 Bft) S-SW 213 0 min 0,0 UV-I 0 W/m 10,9 C 11,7 C 0,0 km/h (0 Bft)
15.10.2022 02:21 11,7 C 11,1 C 95 % 1009,3 hPa 0,0 l/m 0,1 km/h (0 Bft) S-SW 213 0 min 0,0 UV-I 0 W/m 10,9 C 11,7 C 1,6 km/h (1 Bft)
15.10.2022 02:24 11,7 C 11,1 C 95 % 1009,4 hPa 0,0 l/m 0,0 km/h (0 Bft) S-SW 213 0 min 0,0 UV-I 0 W/m 10,9 C 11,7 C 0,0 km/h (0 Bft)
15.10.2022 02:27 11,7 C 11,1 C 95 % 1009,4 hPa 0,0 l/m 0,2 km/h (0 Bft) S-SW 213 0 min 0,0 UV-I 0 W/m 10,9 C 11,7 C 1,6 km/h (1 Bft)
15.10.2022 02:30 11,7 C 11,1 C 95 % 1009,3 hPa 0,0 l/m 0,1 km/h (0 Bft) S-SW 213 0 min 0,0 UV-I 0 W/m 10,9 C 11,7 C 1,6 km/h (1 Bft)
15.10.2022 02:33 11,7 C 11,1 C 95 % 1009,4 hPa 0,2 l/m 0,8 km/h (0 Bft) S-SW 213 0 min 0,0 UV-I 0 W/m 10,9 C 11,7 C 3,2 km/h (1 Bft)
15.10.2022 02:36 11,7 C 11,1 C 95 % 1009,3 hPa 0,0 l/m 0,1 km/h (0 Bft) S-SW 213 0 min 0,0 UV-I 0 W/m 10,9 C 11,7 C 1,6 km/h (1 Bft)
15.10.2022 02:39 11,7 C 11,1 C 95 % 1009,4 hPa 0,0 l/m 0,0 km/h (0 Bft) S-SW 213 0 min 0,0 UV-I 0 W/m 10,9 C 11,7 C 0,0 km/h (0 Bft)
15.10.2022 02:42 11,7 C 11,1 C 95 % 1009,4 hPa 0,0 l/m 0,9 km/h (0 Bft) S-SW 213 0 min 0,0 UV-I 0 W/m 10,9 C 11,7 C 3,2 km/h (1 Bft)
15.10.2022 02:45 11,7 C 11,1 C 95 % 1009,5 hPa 0,0 l/m 2,8 km/h (1 Bft) W-SW 249 0 min 0,0 UV-I 0 W/m 10,9 C 11,7 C 6,4 km/h (2 Bft)
15.10.2022 02:48 11,7 C 11,1 C 95 % 1009,4 hPa 0,0 l/m 2,3 km/h (1 Bft) W-SW 249 0 min 0,0 UV-I 0 W/m 10,9 C 11,7 C 6,4 km/h (2 Bft)
15.10.2022 02:51 11,7 C 11,1 C 95 % 1009,4 hPa 0,0 l/m 0,8 km/h (0 Bft) W-SW 249 0 min 0,0 UV-I 0 W/m 10,9 C 11,7 C 3,2 km/h (1 Bft)
15.10.2022 02:54 11,7 C 11,1 C 95 % 1009,3 hPa 0,0 l/m 0,0 km/h (0 Bft) W-SW 249 0 min 0,0 UV-I 0 W/m 10,9 C 11,7 C 1,6 km/h (1 Bft)
15.10.2022 02:57 11,7 C 11,1 C 95 % 1009,3 hPa 0,0 l/m 0,4 km/h (0 Bft) W-SW 249 0 min 0,0 UV-I 0 W/m 10,9 C 11,7 C 1,6 km/h (1 Bft)
15.10.2022 03:00 11,7 C 11,1 C 95 % 1009,3 hPa 0,0 l/m 0,0 km/h (0 Bft) W-SW 249 0 min 0,0 UV-I 0 W/m 10,9 C 11,7 C 0,0 km/h (0 Bft)
15.10.2022 03:03 11,6 C 11,1 C 95 % 1009,4 hPa 0,0 l/m 0,0 km/h (0 Bft) W-SW 249 0 min 0,0 UV-I 0 W/m 10,8 C 11,6 C 0,0 km/h (0 Bft)
15.10.2022 03:06 11,6 C 11,1 C 95 % 1009,4 hPa 0,0 l/m 0,7 km/h (0 Bft) W-SW 249 0 min 0,0 UV-I 0 W/m 10,8 C 11,6 C 1,6 km/h (1 Bft)
15.10.2022 03:09 11,6 C 11,1 C 95 % 1009,5 hPa 0,0 l/m 1,0 km/h (0 Bft) W-SW 249 0 min 0,0 UV-I 0 W/m 10,8 C 11,6 C 1,6 km/h (1 Bft)
15.10.2022 03:12 11,6 C 11,1 C 95 % 1009,5 hPa 0,0 l/m 0,8 km/h (0 Bft) W-SW 249 0 min 0,0 UV-I 0 W/m 10,8 C 11,6 C 3,2 km/h (1 Bft)
15.10.2022 03:15 11,6 C 11,1 C 95 % 1009,4 hPa 0,0 l/m 0,4 km/h (0 Bft) W-SW 249 0 min 0,0 UV-I 0 W/m 10,8 C 11,6 C 1,6 km/h (1 Bft)
15.10.2022 03:18 11,6 C 11,1 C 95 % 1009,4 hPa 0,0 l/m 0,2 km/h (0 Bft) W-SW 249 0 min 0,0 UV-I 0 W/m 10,8 C 11,6 C 1,6 km/h (1 Bft)
15.10.2022 03:21 11,6 C 11,1 C 95 % 1009,4 hPa 0,0 l/m 0,7 km/h (0 Bft) W-SW 249 0 min 0,0 UV-I 0 W/m 10,8 C 11,6 C 1,6 km/h (1 Bft)
15.10.2022 03:24 11,6 C 11,1 C 95 % 1009,4 hPa 0,0 l/m 0,5 km/h (0 Bft) W-SW 249 0 min 0,0 UV-I 0 W/m 10,8 C 11,6 C 1,6 km/h (1 Bft)
15.10.2022 03:27 11,5 C 11,1 C 95 % 1009,4 hPa 0,0 l/m 1,2 km/h (1 Bft) W-SW 249 0 min 0,0 UV-I 0 W/m 10,7 C 11,5 C 3,2 km/h (1 Bft)
15.10.2022 03:30 11,5 C 11,1 C 95 % 1009,4 hPa 0,0 l/m 1,0 km/h (0 Bft) W-SW 249 0 min 0,0 UV-I 0 W/m 10,7 C 11,5 C 3,2 km/h (1 Bft)
15.10.2022 03:33 11,5 C 11,1 C 95 % 1009,4 hPa 0,0 l/m 1,3 km/h (1 Bft) W-SW 249 0 min 0,0 UV-I 0 W/m 10,7 C 11,5 C 3,2 km/h (1 Bft)
15.10.2022 03:36 11,6 C 11,1 C 95 % 1009,3 hPa 0,0 l/m 0,7 km/h (0 Bft) W-SW 249 0 min 0,0 UV-I 0 W/m 10,8 C 11,6 C 3,2 km/h (1 Bft)
15.10.2022 03:39 11,6 C 11,1 C 95 % 1009,3 hPa 0,0 l/m 1,1 km/h (1 Bft) W-SW 249 0 min 0,0 UV-I 0 W/m 10,8 C 11,6 C 3,2 km/h (1 Bft)
15.10.2022 03:42 11,6 C 11,1 C 95 % 1009,3 hPa 0,0 l/m 1,0 km/h (0 Bft) W-SW 249 0 min 0,0 UV-I 0 W/m 10,8 C 11,6 C 3,2 km/h (1 Bft)
15.10.2022 03:45 11,6 C 11,1 C 95 % 1009,3 hPa 0,0 l/m 1,2 km/h (1 Bft) W-SW 249 0 min 0,0 UV-I 0 W/m 10,8 C 11,6 C 3,2 km/h (1 Bft)
15.10.2022 03:48 11,6 C 11,1 C 95 % 1009,4 hPa 0,0 l/m 1,5 km/h (1 Bft) W-SW 249 0 min 0,0 UV-I 0 W/m 10,8 C 11,6 C 3,2 km/h (1 Bft)
15.10.2022 03:51 11,6 C 11,1 C 95 % 1009,4 hPa 0,0 l/m 1,7 km/h (1 Bft) W-SW 249 0 min 0,0 UV-I 0 W/m 10,8 C 11,6 C 3,2 km/h (1 Bft)
15.10.2022 03:54 11,6 C 11,1 C 95 % 1009,3 hPa 0,0 l/m 2,3 km/h (1 Bft) W-SW 249 0 min 0,0 UV-I 0 W/m 10,8 C 11,6 C 3,2 km/h (1 Bft)
15.10.2022 03:57 11,7 C 11,1 C 95 % 1009,4 hPa 0,0 l/m 1,6 km/h (1 Bft) W-SW 249 0 min 0,0 UV-I 0 W/m 10,9 C 11,7 C 3,2 km/h (1 Bft)
15.10.2022 04:00 11,6 C 11,1 C 95 % 1009,2 hPa 0,0 l/m 1,1 km/h (1 Bft) W-SW 249 0 min 0,0 UV-I 0 W/m 10,8 C 11,6 C 3,2 km/h (1 Bft)
15.10.2022 04:03 11,6 C 11,1 C 95 % 1009,4 hPa 0,0 l/m 2,3 km/h (1 Bft) W-SW 249 0 min 0,0 UV-I 0 W/m 10,8 C 11,6 C 4,8 km/h (1 Bft)
15.10.2022 04:06 11,6 C 11,1 C 95 % 1009,4 hPa 0,0 l/m 3,2 km/h (1 Bft) W-SW 246 0 min 0,0 UV-I 0 W/m 10,8 C 11,6 C 6,4 km/h (2 Bft)
15.10.2022 04:09 11,6 C 11,1 C 95 % 1009,3 hPa 0,0 l/m 3,3 km/h (1 Bft) W-SW 257 0 min 0,0 UV-I 0 W/m 10,8 C 11,6 C 6,4 km/h (2 Bft)
15.10.2022 04:12 11,6 C 11,1 C 95 % 1009,3 hPa 0,0 l/m 2,6 km/h (1 Bft) W-SW 247 0 min 0,0 UV-I 0 W/m 10,8 C 11,6 C 6,4 km/h (2 Bft)
15.10.2022 04:15 11,6 C 11,1 C 95 % 1009,3 hPa 0,0 l/m 2,1 km/h (1 Bft) W-SW 247 0 min 0,0 UV-I 0 W/m 10,8 C 11,6 C 4,8 km/h (1 Bft)
15.10.2022 04:18 11,6 C 11,1 C 95 % 1009,3 hPa 0,0 l/m 2,0 km/h (1 Bft) W-SW 247 0 min 0,0 UV-I 0 W/m 10,8 C 11,6 C 3,2 km/h (1 Bft)
15.10.2022 04:21 11,6 C 11,1 C 95 % 1009,2 hPa 0,0 l/m 3,4 km/h (1 Bft) W-SW 246 0 min 0,0 UV-I 0 W/m 10,8 C 11,6 C 4,8 km/h (1 Bft)
15.10.2022 04:24 11,6 C 11,1 C 95 % 1009,2 hPa 0,0 l/m 2,1 km/h (1 Bft) W-SW 246 0 min 0,0 UV-I 0 W/m 10,8 C 11,6 C 3,2 km/h (1 Bft)
15.10.2022 04:27 11,6 C 11,1 C 95 % 1009,3 hPa 0,0 l/m 2,0 km/h (1 Bft) W-SW 246 0 min 0,0 UV-I 0 W/m 10,8 C 11,6 C 4,8 km/h (1 Bft)
15.10.2022 04:30 11,6 C 11,1 C 95 % 1009,2 hPa 0,0 l/m 1,7 km/h (1 Bft) W-SW 246 0 min 0,0 UV-I 0 W/m 10,8 C 11,6 C 4,8 km/h (1 Bft)
15.10.2022 04:33 11,6 C 11,1 C 95 % 1009,2 hPa 0,0 l/m 2,3 km/h (1 Bft) W-SW 238 0 min 0,0 UV-I 0 W/m 10,8 C 11,6 C 6,4 km/h (2 Bft)
15.10.2022 04:36 11,5 C 11,1 C 95 % 1009,3 hPa 0,0 l/m 2,7 km/h (1 Bft) W-SW 239 0 min 0,0 UV-I 0 W/m 10,7 C 11,5 C 4,8 km/h (1 Bft)
15.10.2022 04:39 11,5 C 11,1 C 95 % 1009,4 hPa 0,0 l/m 3,1 km/h (1 Bft) W-SW 239 0 min 0,0 UV-I 0 W/m 10,7 C 11,5 C 4,8 km/h (1 Bft)
15.10.2022 04:42 11,4 C 11,1 C 95 % 1009,2 hPa 0,0 l/m 3,6 km/h (1 Bft) W-SW 239 0 min 0,0 UV-I 0 W/m 10,6 C 11,4 C 6,4 km/h (2 Bft)
15.10.2022 04:45 11,5 C 11,1 C 95 % 1009,4 hPa 0,0 l/m 4,7 km/h (1 Bft) W-SW 250 0 min 0,0 UV-I 0 W/m 10,7 C 11,5 C 9,7 km/h (2 Bft)
15.10.2022 04:48 11,4 C 11,1 C 95 % 1009,4 hPa 0,0 l/m 4,0 km/h (1 Bft) W-SW 252 0 min 0,0 UV-I 0 W/m 10,6 C 11,4 C 6,4 km/h (2 Bft)
15.10.2022 04:51 11,4 C 11,1 C 95 % 1009,3 hPa 0,0 l/m 2,5 km/h (1 Bft) W 261 0 min 0,0 UV-I 0 W/m 10,6 C 11,4 C 6,4 km/h (2 Bft)
15.10.2022 04:54 11,4 C 11,1 C 95 % 1009,3 hPa 0,0 l/m 2,6 km/h (1 Bft) W 263 0 min 0,0 UV-I 0 W/m 10,6 C 11,4 C 6,4 km/h (2 Bft)
15.10.2022 04:57 11,3 C 11,1 C 95 % 1009,3 hPa 0,0 l/m 3,0 km/h (1 Bft) W 263 0 min 0,0 UV-I 0 W/m 10,5 C 11,3 C 6,4 km/h (2 Bft)
15.10.2022 05:00 11,3 C 11,1 C 95 % 1009,2 hPa 0,0 l/m 2,7 km/h (1 Bft) W 263 0 min 0,0 UV-I 0 W/m 10,5 C 11,3 C 4,8 km/h (1 Bft)
15.10.2022 05:03 11,2 C 11,1 C 95 % 1009,1 hPa 0,0 l/m 0,8 km/h (0 Bft) W 263 0 min 0,0 UV-I 0 W/m 10,4 C 11,2 C 3,2 km/h (1 Bft)
15.10.2022 05:06 11,2 C 10,6 C 95 % 1009,0 hPa 0,0 l/m 0,1 km/h (0 Bft) W 263 0 min 0,0 UV-I 0 W/m 10,4 C 11,2 C 1,6 km/h (1 Bft)
15.10.2022 05:09 11,2 C 10,6 C 95 % 1009,2 hPa 0,0 l/m 1,0 km/h (0 Bft) W 263 0 min 0,0 UV-I 0 W/m 10,4 C 11,2 C 3,2 km/h (1 Bft)
15.10.2022 05:12 11,2 C 10,6 C 95 % 1009,2 hPa 0,0 l/m 3,0 km/h (1 Bft) W 262 0 min 0,0 UV-I 0 W/m 10,4 C 11,2 C 4,8 km/h (1 Bft)
15.10.2022 05:15 11,2 C 10,6 C 95 % 1009,2 hPa 0,0 l/m 1,7 km/h (1 Bft) W 262 0 min 0,0 UV-I 0 W/m 10,4 C 11,2 C 4,8 km/h (1 Bft)
15.10.2022 05:18 11,2 C 10,6 C 95 % 1009,4 hPa 0,0 l/m 2,8 km/h (1 Bft) W 262 0 min 0,0 UV-I 0 W/m 10,4 C 11,2 C 4,8 km/h (1 Bft)
15.10.2022 05:21 11,1 C 10,6 C 95 % 1009,3 hPa 0,0 l/m 2,5 km/h (1 Bft) W 262 0 min 0,0 UV-I 0 W/m 10,3 C 11,1 C 4,8 km/h (1 Bft)
15.10.2022 05:24 11,1 C 10,6 C 95 % 1009,4 hPa 0,0 l/m 2,2 km/h (1 Bft) W 262 0 min 0,0 UV-I 0 W/m 10,3 C 11,1 C 3,2 km/h (1 Bft)
15.10.2022 05:27 11,1 C 10,6 C 95 % 1009,3 hPa 0,0 l/m 1,8 km/h (1 Bft) W 262 0 min 0,0 UV-I 0 W/m 10,3 C 11,1 C 3,2 km/h (1 Bft)
15.10.2022 05:30 11,1 C 10,6 C 95 % 1009,3 hPa 0,0 l/m 1,9 km/h (1 Bft) W 262 0 min 0,0 UV-I 0 W/m 10,3 C 11,1 C 3,2 km/h (1 Bft)
15.10.2022 05:33 11,1 C 10,6 C 95 % 1009,3 hPa 0,0 l/m 2,6 km/h (1 Bft) W-SW 254 0 min 0,0 UV-I 0 W/m 10,3 C 11,1 C 4,8 km/h (1 Bft)
15.10.2022 05:36 11,1 C 10,6 C 95 % 1009,5 hPa 0,0 l/m 3,7 km/h (1 Bft) SW 223 0 min 0,0 UV-I 0 W/m 10,3 C 11,1 C 6,4 km/h (2 Bft)
15.10.2022 05:39 11,1 C 10,6 C 95 % 1009,3 hPa 0,0 l/m 3,1 km/h (1 Bft) SW 226 0 min 0,0 UV-I 0 W/m 10,3 C 11,1 C 6,4 km/h (2 Bft)
15.10.2022 05:42 11,1 C 10,6 C 95 % 1009,3 hPa 0,0 l/m 3,9 km/h (1 Bft) SW 219 0 min 0,0 UV-I 0 W/m 10,3 C 11,1 C 6,4 km/h (2 Bft)
15.10.2022 05:45 11,1 C 10,6 C 95 % 1009,4 hPa 0,0 l/m 4,2 km/h (1 Bft) SW 215 0 min 0,0 UV-I 0 W/m 10,3 C 11,1 C 8,0 km/h (2 Bft)
15.10.2022 05:48 11,1 C 10,6 C 95 % 1009,3 hPa 0,0 l/m 4,9 km/h (1 Bft) S-SW 212 0 min 0,0 UV-I 0 W/m 10,3 C 11,1 C 8,0 km/h (2 Bft)
15.10.2022 05:51 11,1 C 10,6 C 95 % 1009,2 hPa 0,0 l/m 3,8 km/h (1 Bft) S-SW 213 0 min 0,0 UV-I 0 W/m 10,3 C 11,1 C 6,4 km/h (2 Bft)
15.10.2022 05:54 11,1 C 10,6 C 95 % 1009,2 hPa 0,0 l/m 3,4 km/h (1 Bft) S-SW 207 0 min 0,0 UV-I 0 W/m 10,3 C 11,1 C 4,8 km/h (1 Bft)
15.10.2022 05:57 11,1 C 10,6 C 95 % 1009,3 hPa 0,0 l/m 4,2 km/h (1 Bft) S-SW 199 0 min 0,0 UV-I 0 W/m 10,3 C 11,1 C 8,0 km/h (2 Bft)
15.10.2022 06:00 11,1 C 10,6 C 95 % 1009,3 hPa 0,0 l/m 3,0 km/h (1 Bft) S-SW 200 0 min 0,0 UV-I 0 W/m 10,3 C 11,1 C 4,8 km/h (1 Bft)
15.10.2022 06:03 11,1 C 10,6 C 95 % 1009,3 hPa 0,0 l/m 3,7 km/h (1 Bft) S-SW 200 0 min 0,0 UV-I 0 W/m 10,3 C 11,1 C 6,4 km/h (2 Bft)
15.10.2022 06:06 11,1 C 10,6 C 95 % 1009,1 hPa 0,0 l/m 3,2 km/h (1 Bft) S 178 0 min 0,0 UV-I 0 W/m 10,3 C 11,1 C 6,4 km/h (2 Bft)
15.10.2022 06:09 11,1 C 10,6 C 95 % 1009,1 hPa 0,0 l/m 3,8 km/h (1 Bft) S 178 0 min 0,0 UV-I 0 W/m 10,3 C 11,1 C 6,4 km/h (2 Bft)
15.10.2022 06:12 11,1 C 10,6 C 95 % 1009,0 hPa 0,0 l/m 1,1 km/h (1 Bft) S 178 0 min 0,0 UV-I 0 W/m 10,3 C 11,1 C 3,2 km/h (1 Bft)
15.10.2022 06:15 11,1 C 10,6 C 95 % 1009,1 hPa 0,0 l/m 3,3 km/h (1 Bft) S 178 0 min 0,0 UV-I 0 W/m 10,3 C 11,1 C 8,0 km/h (2 Bft)
15.10.2022 06:18 11,1 C 10,6 C 95 % 1009,2 hPa 0,0 l/m 4,5 km/h (1 Bft) S 184 0 min 0,0 UV-I 0 W/m 10,3 C 11,1 C 6,4 km/h (2 Bft)
15.10.2022 06:21 11,1 C 10,6 C 95 % 1009,3 hPa 0,0 l/m 4,1 km/h (1 Bft) S 186 0 min 0,0 UV-I 0 W/m 10,3 C 11,1 C 6,4 km/h (2 Bft)
15.10.2022 06:24 11,1 C 10,6 C 95 % 1009,4 hPa 0,0 l/m 5,6 km/h (1 Bft) S 191 0 min 0,0 UV-I 0 W/m 10,3 C 11,1 C 8,0 km/h (2 Bft)
15.10.2022 06:27 11,1 C 10,6 C 95 % 1009,3 hPa 0,0 l/m 4,2 km/h (1 Bft) S 191 0 min 0,0 UV-I 0 W/m 10,3 C 11,1 C 6,4 km/h (2 Bft)
15.10.2022 06:30 11,2 C 10,6 C 95 % 1009,4 hPa 0,0 l/m 3,5 km/h (1 Bft) S 190 0 min 0,0 UV-I 0 W/m 10,4 C 11,2 C 6,4 km/h (2 Bft)
15.10.2022 06:33 11,2 C 10,6 C 95 % 1009,2 hPa 0,0 l/m 3,1 km/h (1 Bft) S 190 0 min 0,0 UV-I 0 W/m 10,4 C 11,2 C 6,4 km/h (2 Bft)
15.10.2022 06:36 11,2 C 10,6 C 95 % 1009,3 hPa 0,0 l/m 2,6 km/h (1 Bft) S 190 0 min 0,0 UV-I 0 W/m 10,4 C 11,2 C 4,8 km/h (1 Bft)
15.10.2022 06:39 11,2 C 11,1 C 95 % 1009,3 hPa 0,0 l/m 5,9 km/h (2 Bft) SW 218 0 min 0,0 UV-I 0 W/m 10,4 C 11,2 C 9,7 km/h (2 Bft)
15.10.2022 06:42 11,3 C 11,1 C 95 % 1009,2 hPa 0,0 l/m 5,8 km/h (2 Bft) SO 137 0 min 0,0 UV-I 0 W/m 10,5 C 11,3 C 8,0 km/h (2 Bft)
15.10.2022 06:45 11,3 C 11,1 C 95 % 1009,3 hPa 0,0 l/m 6,5 km/h (2 Bft) S-SW 192 0 min 0,0 UV-I 0 W/m 10,5 C 11,3 C 11,3 km/h (2 Bft)
15.10.2022 06:48 11,3 C 11,1 C 95 % 1009,2 hPa 0,0 l/m 4,5 km/h (1 Bft) S 189 0 min 0,0 UV-I 0 W/m 10,5 C 11,3 C 8,0 km/h (2 Bft)
15.10.2022 06:51 11,3 C 11,1 C 95 % 1009,3 hPa 0,0 l/m 6,7 km/h (2 Bft) S-SW 205 0 min 0,0 UV-I 0 W/m 10,5 C 11,1 C 11,3 km/h (2 Bft)
15.10.2022 06:54 11,3 C 11,1 C 95 % 1009,3 hPa 0,0 l/m 8,3 km/h (2 Bft) S-SO 161 0 min 0,0 UV-I 0 W/m 10,5 C 10,0 C 16,1 km/h (3 Bft)
15.10.2022 06:57 11,4 C 11,1 C 95 % 1009,2 hPa 0,0 l/m 7,3 km/h (2 Bft) S-SW 192 0 min 0,0 UV-I 0 W/m 10,6 C 10,8 C 12,9 km/h (3 Bft)
15.10.2022 07:00 11,4 C 11,1 C 95 % 1009,1 hPa 0,0 l/m 3,6 km/h (1 Bft) SW 215 0 min 0,0 UV-I 0 W/m 10,6 C 11,4 C 8,0 km/h (2 Bft)
15.10.2022 07:01 11,4 C 11,1 C 95 % 1009,1 hPa 0,0 l/m 6,4 km/h (2 Bft) S-SW 202 0 min 0,0 UV-I 0 W/m 10,6 C 11,4 C 8,0 km/h (2 Bft)
15.10.2022 07:03 11,4 C 11,1 C 95 % 1009,2 hPa 0,0 l/m 5,7 km/h (1 Bft) S 190 0 min 0,0 UV-I 0 W/m 10,6 C 11,4 C 8,0 km/h (2 Bft)
15.10.2022 07:06 11,4 C 11,1 C 95 % 1009,2 hPa 0,0 l/m 4,7 km/h (1 Bft) S 175 0 min 0,0 UV-I 0 W/m 10,6 C 11,4 C 9,7 km/h (2 Bft)
15.10.2022 07:09 11,4 C 11,1 C 95 % 1009,2 hPa 0,0 l/m 5,4 km/h (1 Bft) S 181 0 min 0,0 UV-I 0 W/m 10,6 C 11,4 C 11,3 km/h (2 Bft)
15.10.2022 07:12 11,4 C 11,1 C 95 % 1009,3 hPa 0,0 l/m 7,3 km/h (2 Bft) S 178 0 min 0,0 UV-I 0 W/m 10,6 C 10,8 C 12,9 km/h (3 Bft)
15.10.2022 07:15 11,4 C 11,1 C 95 % 1009,2 hPa 0,0 l/m 5,8 km/h (2 Bft) S-SW 196 0 min 0,0 UV-I 0 W/m 10,6 C 11,4 C 9,7 km/h (2 Bft)
15.10.2022 07:18 11,4 C 11,1 C 95 % 1009,2 hPa 0,0 l/m 7,2 km/h (2 Bft) S 183 0 min 0,0 UV-I 0 W/m 10,6 C 10,9 C 14,5 km/h (3 Bft)
15.10.2022 07:21 11,4 C 11,1 C 95 % 1009,3 hPa 0,0 l/m 6,8 km/h (2 Bft) S-SO 168 0 min 0,0 UV-I 0 W/m 10,6 C 11,1 C 9,7 km/h (2 Bft)
15.10.2022 07:24 11,4 C 11,1 C 95 % 1009,2 hPa 0,0 l/m 7,6 km/h (2 Bft) S-SO 168 0 min 0,0 UV-I 0 W/m 10,6 C 10,6 C 14,5 km/h (3 Bft)
15.10.2022 07:27 11,4 C 11,1 C 95 % 1009,2 hPa 0,0 l/m 6,5 km/h (2 Bft) S 184 0 min 0,0 UV-I 0 W/m 10,6 C 11,4 C 8,0 km/h (2 Bft)
15.10.2022 07:30 11,4 C 11,1 C 95 % 1009,3 hPa 0,0 l/m 6,1 km/h (2 Bft) S-SW 204 0 min 0,0 UV-I 0 W/m 10,6 C 11,4 C 9,7 km/h (2 Bft)
15.10.2022 07:33 11,4 C 11,1 C 95 % 1009,3 hPa 0,0 l/m 8,9 km/h (2 Bft) S-SW 199 0 min 0,0 UV-I 0 W/m 10,6 C 9,8 C 14,5 km/h (3 Bft)
15.10.2022 07:36 11,4 C 11,1 C 95 % 1009,3 hPa 0,0 l/m 8,6 km/h (2 Bft) S-SO 163 0 min 0,0 UV-I 0 W/m 10,6 C 9,9 C 14,5 km/h (3 Bft)
15.10.2022 07:39 11,4 C 11,1 C 95 % 1009,2 hPa 0,0 l/m 7,4 km/h (2 Bft) S-SO 155 0 min 0,0 UV-I 0 W/m 10,6 C 10,7 C 14,5 km/h (3 Bft)
15.10.2022 07:42 11,4 C 11,1 C 95 % 1009,2 hPa 0,0 l/m 6,0 km/h (2 Bft) S 187 0 min 0,0 UV-I 0 W/m 10,6 C 11,4 C 11,3 km/h (2 Bft)
15.10.2022 07:45 11,4 C 11,1 C 95 % 1009,3 hPa 0,0 l/m 8,2 km/h (2 Bft) S 179 0 min 0,0 UV-I 0 W/m 10,6 C 10,2 C 12,9 km/h (3 Bft)
15.10.2022 07:48 11,4 C 11,1 C 95 % 1009,4 hPa 0,0 l/m 9,4 km/h (2 Bft) S 181 0 min 0,0 UV-I 0 W/m 10,6 C 9,5 C 16,1 km/h (3 Bft)
15.10.2022 07:51 11,4 C 11,1 C 95 % 1009,4 hPa 0,0 l/m 8,0 km/h (2 Bft) S 182 0 min 0,0 UV-I 0 W/m 10,6 C 10,3 C 12,9 km/h (3 Bft)
15.10.2022 07:54 11,4 C 11,1 C 95 % 1009,4 hPa 0,0 l/m 6,8 km/h (2 Bft) SW 217 0 min 0,0 UV-I 0 W/m 10,6 C 11,1 C 11,3 km/h (2 Bft)
15.10.2022 07:57 11,4 C 11,1 C 95 % 1009,5 hPa 0,0 l/m 8,2 km/h (2 Bft) S 178 0 min 0,0 UV-I 0 W/m 10,6 C 10,2 C 16,1 km/h (3 Bft)
15.10.2022 08:00 11,5 C 11,1 C 95 % 1009,5 hPa 0,0 l/m 8,7 km/h (2 Bft) S-SW 201 0 min 0,0 UV-I 0 W/m 10,7 C 10,0 C 14,5 km/h (3 Bft)
15.10.2022 08:03 11,5 C 11,1 C 95 % 1009,4 hPa 0,0 l/m 6,9 km/h (2 Bft) S 182 0 min 0,0 UV-I 0 W/m 10,7 C 11,2 C 17,7 km/h (3 Bft)
15.10.2022 08:06 11,5 C 11,1 C 95 % 1009,4 hPa 0,0 l/m 6,8 km/h (2 Bft) S-SW 204 0 min 0,0 UV-I 0 W/m 10,7 C 11,2 C 12,9 km/h (3 Bft)
15.10.2022 08:09 11,6 C 11,1 C 95 % 1009,5 hPa 0,0 l/m 9,4 km/h (2 Bft) S 173 0 min 0,0 UV-I 0 W/m 10,8 C 9,7 C 14,5 km/h (3 Bft)
15.10.2022 08:12 11,6 C 11,1 C 95 % 1009,3 hPa 0,0 l/m 7,6 km/h (2 Bft) S 175 0 min 0,0 UV-I 0 W/m 10,8 C 10,8 C 17,7 km/h (3 Bft)
15.10.2022 08:15 11,6 C 11,1 C 95 % 1009,5 hPa 0,2 l/m 8,4 km/h (2 Bft) S 173 0 min 0,0 UV-I 0 W/m 10,8 C 10,3 C 14,5 km/h (3 Bft)
15.10.2022 08:18 11,6 C 11,1 C 95 % 1009,4 hPa 0,0 l/m 6,5 km/h (2 Bft) S 184 0 min 0,0 UV-I 0 W/m 10,8 C 11,6 C 16,1 km/h (3 Bft)
15.10.2022 08:21 11,6 C 11,1 C 95 % 1009,4 hPa 0,0 l/m 8,2 km/h (2 Bft) S-SW 196 0 min 0,0 UV-I 0 W/m 10,8 C 10,4 C 16,1 km/h (3 Bft)
15.10.2022 08:24 11,6 C 11,1 C 95 % 1009,5 hPa 0,0 l/m 7,7 km/h (2 Bft) S 189 0 min 0,0 UV-I 3 W/m 10,8 C 10,7 C 14,5 km/h (3 Bft)
15.10.2022 08:27 11,7 C 11,1 C 95 % 1009,5 hPa 0,0 l/m 7,6 km/h (2 Bft) S 175 0 min 0,0 UV-I 6 W/m 10,9 C 10,9 C 14,5 km/h (3 Bft)
15.10.2022 08:30 11,7 C 11,1 C 95 % 1009,4 hPa 0,0 l/m 7,2 km/h (2 Bft) S 188 0 min 0,0 UV-I 7 W/m 10,9 C 11,2 C 14,5 km/h (3 Bft)
15.10.2022 08:33 11,7 C 11,1 C 95 % 1009,4 hPa 0,0 l/m 8,8 km/h (2 Bft) SO 139 0 min 0,0 UV-I 11 W/m 10,9 C 10,1 C 16,1 km/h (3 Bft)
15.10.2022 08:36 11,7 C 11,1 C 95 % 1009,4 hPa 0,0 l/m 7,5 km/h (2 Bft) S-SO 167 0 min 0,0 UV-I 12 W/m 10,9 C 11,0 C 12,9 km/h (3 Bft)
15.10.2022 08:39 11,7 C 11,1 C 95 % 1009,3 hPa 0,0 l/m 9,6 km/h (2 Bft) S 173 0 min 0,0 UV-I 13 W/m 10,9 C 9,7 C 19,3 km/h (3 Bft)
15.10.2022 08:42 11,7 C 11,1 C 95 % 1009,3 hPa 0,0 l/m 8,5 km/h (2 Bft) S 190 0 min 0,0 UV-I 15 W/m 10,9 C 10,3 C 19,3 km/h (3 Bft)
15.10.2022 08:45 11,8 C 11,7 C 95 % 1009,2 hPa 0,0 l/m 6,7 km/h (2 Bft) S 171 0 min 0,0 UV-I 27 W/m 11,0 C 11,6 C 12,9 km/h (3 Bft)
15.10.2022 08:48 11,8 C 11,7 C 95 % 1009,3 hPa 0,0 l/m 8,1 km/h (2 Bft) S 174 0 min 0,0 UV-I 27 W/m 11,0 C 10,7 C 14,5 km/h (3 Bft)
15.10.2022 08:51 11,8 C 11,7 C 95 % 1009,4 hPa 0,0 l/m 8,5 km/h (2 Bft) S 183 0 min 0,0 UV-I 17 W/m 11,0 C 10,4 C 11,3 km/h (2 Bft)
15.10.2022 08:54 11,8 C 11,7 C 95 % 1009,4 hPa 0,0 l/m 9,9 km/h (2 Bft) S-SW 192 0 min 0,0 UV-I 23 W/m 11,0 C 9,6 C 17,7 km/h (3 Bft)
15.10.2022 08:57 11,8 C 11,7 C 95 % 1009,4 hPa 0,0 l/m 8,6 km/h (2 Bft) S-SW 206 0 min 0,0 UV-I 33 W/m 11,0 C 10,4 C 16,1 km/h (3 Bft)
15.10.2022 09:00 11,9 C 11,7 C 95 % 1009,4 hPa 0,0 l/m 6,6 km/h (2 Bft) S-SO 158 0 min 0,0 UV-I 42 W/m 11,1 C 11,8 C 9,7 km/h (2 Bft)
15.10.2022 09:03 11,9 C 11,7 C 95 % 1009,5 hPa 0,0 l/m 8,8 km/h (2 Bft) SO 136 0 min 0,0 UV-I 33 W/m 11,1 C 10,4 C 17,7 km/h (3 Bft)
15.10.2022 09:06 11,9 C 11,7 C 95 % 1009,5 hPa 0,0 l/m 10,3 km/h (2 Bft) SW 221 0 min 0,0 UV-I 17 W/m 11,1 C 9,5 C 17,7 km/h (3 Bft)
15.10.2022 09:09 11,9 C 11,7 C 95 % 1009,6 hPa 0,0 l/m 7,6 km/h (2 Bft) S-SO 161 0 min 0,0 UV-I 24 W/m 11,1 C 11,1 C 16,1 km/h (3 Bft)
15.10.2022 09:12 12,0 C 11,7 C 94 % 1009,6 hPa 0,0 l/m 12,3 km/h (3 Bft) S 173 0 min 0,0 UV-I 40 W/m 11,1 C 8,7 C 24,1 km/h (4 Bft)
15.10.2022 09:15 12,1 C 11,7 C 94 % 1009,5 hPa 0,0 l/m 10,0 km/h (2 Bft) S 182 0 min 0,0 UV-I 38 W/m 11,2 C 9,9 C 17,7 km/h (3 Bft)
15.10.2022 09:18 12,1 C 11,7 C 95 % 1009,3 hPa 0,0 l/m 11,4 km/h (2 Bft) S 170 0 min 0,0 UV-I 41 W/m 11,3 C 9,2 C 17,7 km/h (3 Bft)
15.10.2022 09:21 12,1 C 11,7 C 95 % 1009,4 hPa 0,0 l/m 8,7 km/h (2 Bft) S-SO 161 0 min 0,0 UV-I 56 W/m 11,3 C 10,6 C 12,9 km/h (3 Bft)
15.10.2022 09:24 12,2 C 11,7 C 95 % 1009,4 hPa 0,0 l/m 9,0 km/h (2 Bft) S-SW 201 0 min 0,0 UV-I 70 W/m 11,4 C 10,6 C 16,1 km/h (3 Bft)
15.10.2022 09:27 12,2 C 11,7 C 94 % 1009,6 hPa 0,0 l/m 12,2 km/h (2 Bft) S-SO 160 0 min 0,0 UV-I 59 W/m 11,3 C 9,0 C 27,4 km/h (4 Bft)
15.10.2022 09:30 12,3 C 12,2 C 94 % 1009,5 hPa 0,0 l/m 9,6 km/h (2 Bft) S-SW 208 0 min 0,0 UV-I 52 W/m 11,4 C 10,3 C 16,1 km/h (3 Bft)
15.10.2022 09:33 12,3 C 12,2 C 94 % 1009,5 hPa 0,0 l/m 8,7 km/h (2 Bft) S 188 0 min 0,0 UV-I 93 W/m 11,4 C 10,8 C 14,5 km/h (3 Bft)
15.10.2022 09:36 12,3 C 12,2 C 94 % 1009,5 hPa 0,0 l/m 9,0 km/h (2 Bft) S-SO 152 0 min 0,0 UV-I 103 W/m 11,4 C 10,7 C 14,5 km/h (3 Bft)
15.10.2022 09:39 12,4 C 12,2 C 94 % 1009,6 hPa 0,0 l/m 10,8 km/h (2 Bft) S 169 0 min 0,0 UV-I 65 W/m 11,5 C 9,8 C 19,3 km/h (3 Bft)
15.10.2022 09:42 12,4 C 12,2 C 94 % 1009,5 hPa 0,0 l/m 11,0 km/h (2 Bft) S 170 0 min 0,0 UV-I 52 W/m 11,5 C 9,7 C 24,1 km/h (4 Bft)
15.10.2022 09:45 12,4 C 12,2 C 94 % 1009,6 hPa 0,0 l/m 9,7 km/h (2 Bft) S-SW 195 0 min 0,0 UV-I 46 W/m 11,5 C 10,4 C 16,1 km/h (3 Bft)
15.10.2022 09:48 12,4 C 12,2 C 94 % 1009,6 hPa 0,0 l/m 10,8 km/h (2 Bft) S 170 0 min 0,0 UV-I 47 W/m 11,5 C 9,8 C 17,7 km/h (3 Bft)
15.10.2022 09:51 12,4 C 12,2 C 94 % 1009,7 hPa 0,0 l/m 8,5 km/h (2 Bft) S-SO 161 0 min 0,0 UV-I 51 W/m 11,5 C 11,1 C 14,5 km/h (3 Bft)
15.10.2022 09:54 12,4 C 12,2 C 94 % 1009,7 hPa 0,0 l/m 9,4 km/h (2 Bft) S 184 0 min 0,0 UV-I 47 W/m 11,5 C 10,6 C 14,5 km/h (3 Bft)
15.10.2022 09:57 12,4 C 12,2 C 94 % 1009,7 hPa 0,0 l/m 10,6 km/h (2 Bft) S-SO 165 0 min 0,0 UV-I 49 W/m 11,5 C 9,9 C 19,3 km/h (3 Bft)
15.10.2022 10:00 12,4 C 12,2 C 94 % 1009,5 hPa 0,0 l/m 12,3 km/h (3 Bft) S-SO 153 0 min 0,0 UV-I 57 W/m 11,5 C 9,1 C 17,7 km/h (3 Bft)
15.10.2022 10:03 12,5 C 12,2 C 94 % 1009,5 hPa 0,0 l/m 9,6 km/h (2 Bft) S 170 0 min 0,0 UV-I 68 W/m 11,6 C 10,6 C 16,1 km/h (3 Bft)
15.10.2022 10:06 12,5 C 12,2 C 94 % 1009,6 hPa 0,0 l/m 11,3 km/h (2 Bft) S-SO 159 0 min 0,0 UV-I 68 W/m 11,6 C 9,7 C 29,0 km/h (5 Bft)
15.10.2022 10:09 12,6 C 12,2 C 93 % 1009,7 hPa 0,0 l/m 12,4 km/h (3 Bft) SW 215 0 min 0,0 UV-I 75 W/m 11,5 C 9,3 C 17,7 km/h (3 Bft)
15.10.2022 10:12 12,6 C 12,2 C 93 % 1009,6 hPa 0,0 l/m 14,3 km/h (3 Bft) S 175 0 min 0,3 UV-I 85 W/m 11,5 C 8,6 C 19,3 km/h (3 Bft)
15.10.2022 10:15 12,6 C 12,2 C 93 % 1009,6 hPa 0,0 l/m 14,0 km/h (3 Bft) S 173 0 min 0,1 UV-I 86 W/m 11,5 C 8,7 C 24,1 km/h (4 Bft)
15.10.2022 10:18 12,7 C 12,8 C 93 % 1009,7 hPa 0,0 l/m 11,0 km/h (2 Bft) S-SO 148 0 min 0,0 UV-I 88 W/m 11,6 C 10,1 C 20,9 km/h (4 Bft)
15.10.2022 10:21 12,7 C 12,2 C 93 % 1010,0 hPa 0,0 l/m 13,1 km/h (3 Bft) S 169 0 min 0,3 UV-I 77 W/m 11,6 C 9,2 C 22,5 km/h (4 Bft)
15.10.2022 10:24 12,7 C 12,2 C 93 % 1009,5 hPa 0,0 l/m 11,2 km/h (2 Bft) S-SO 162 0 min 0,2 UV-I 76 W/m 11,6 C 10,0 C 17,7 km/h (3 Bft)
15.10.2022 10:27 12,8 C 12,8 C 93 % 1009,5 hPa 0,0 l/m 11,5 km/h (2 Bft) S-SO 162 0 min 0,6 UV-I 113 W/m 11,7 C 10,0 C 20,9 km/h (4 Bft)
15.10.2022 10:30 12,8 C 12,8 C 93 % 1009,4 hPa 0,0 l/m 8,2 km/h (2 Bft) S-SW 208 0 min 0,5 UV-I 102 W/m 11,7 C 11,7 C 17,7 km/h (3 Bft)
15.10.2022 10:33 12,9 C 12,8 C 93 % 1009,4 hPa 0,0 l/m 8,8 km/h (2 Bft) S-SO 152 0 min 0,6 UV-I 114 W/m 11,8 C 11,4 C 16,1 km/h (3 Bft)
15.10.2022 10:36 12,9 C 12,8 C 93 % 1009,5 hPa 0,0 l/m 9,8 km/h (2 Bft) S 188 0 min 0,5 UV-I 97 W/m 11,8 C 10,9 C 16,1 km/h (3 Bft)
15.10.2022 10:39 13,1 C 13,3 C 93 % 1009,3 hPa 0,0 l/m 9,5 km/h (2 Bft) S-SO 167 0 min 0,6 UV-I 136 W/m 12,0 C 11,3 C 16,1 km/h (3 Bft)
15.10.2022 10:42 13,1 C 13,3 C 93 % 1009,4 hPa 0,0 l/m 9,7 km/h (2 Bft) S-SO 158 0 min 0,7 UV-I 147 W/m 12,0 C 11,2 C 19,3 km/h (3 Bft)
15.10.2022 10:45 13,2 C 13,3 C 93 % 1009,5 hPa 0,0 l/m 10,0 km/h (2 Bft) S-SO 156 0 min 0,6 UV-I 123 W/m 12,1 C 11,1 C 19,3 km/h (3 Bft)
15.10.2022 10:48 13,2 C 12,8 C 93 % 1009,4 hPa 0,0 l/m 15,6 km/h (3 Bft) S 182 0 min 0,6 UV-I 99 W/m 12,1 C 8,8 C 22,5 km/h (4 Bft)
15.10.2022 10:51 13,2 C 12,8 C 93 % 1009,5 hPa 0,0 l/m 13,0 km/h (3 Bft) S-SW 195 0 min 0,7 UV-I 101 W/m 12,1 C 9,8 C 19,3 km/h (3 Bft)
15.10.2022 10:54 13,2 C 12,8 C 92 % 1009,5 hPa 0,0 l/m 14,6 km/h (3 Bft) SO 144 0 min 0,7 UV-I 116 W/m 11,9 C 9,2 C 25,7 km/h (4 Bft)
15.10.2022 10:57 13,2 C 12,8 C 92 % 1009,5 hPa 0,0 l/m 11,7 km/h (2 Bft) S 172 0 min 0,6 UV-I 89 W/m 11,9 C 10,3 C 19,3 km/h (3 Bft)
15.10.2022 11:00 13,2 C 12,8 C 92 % 1009,5 hPa 0,0 l/m 12,7 km/h (3 Bft) S 185 0 min 0,6 UV-I 99 W/m 11,9 C 9,9 C 20,9 km/h (4 Bft)
15.10.2022 11:03 13,2 C 12,8 C 92 % 1009,5 hPa 0,0 l/m 13,3 km/h (3 Bft) S-SO 157 0 min 0,6 UV-I 100 W/m 11,9 C 9,7 C 22,5 km/h (4 Bft)
15.10.2022 11:06 13,2 C 12,8 C 92 % 1009,6 hPa 0,0 l/m 14,9 km/h (3 Bft) SO 140 0 min 0,6 UV-I 106 W/m 11,9 C 9,0 C 27,4 km/h (4 Bft)
15.10.2022 11:09 13,2 C 12,8 C 92 % 1009,5 hPa 0,0 l/m 13,8 km/h (3 Bft) SO 138 0 min 0,6 UV-I 101 W/m 11,9 C 9,5 C 24,1 km/h (4 Bft)
15.10.2022 11:12 13,2 C 12,8 C 92 % 1009,6 hPa 0,0 l/m 15,4 km/h (3 Bft) S-SO 161 0 min 0,5 UV-I 85 W/m 11,9 C 8,9 C 33,8 km/h (5 Bft)
15.10.2022 11:15 13,2 C 12,8 C 92 % 1009,5 hPa 0,0 l/m 10,0 km/h (2 Bft) S 179 0 min 0,5 UV-I 88 W/m 11,9 C 11,1 C 19,3 km/h (3 Bft)
15.10.2022 11:18 13,2 C 12,8 C 92 % 1009,5 hPa 0,0 l/m 10,2 km/h (2 Bft) S 169 0 min 0,5 UV-I 78 W/m 11,9 C 11,0 C 17,7 km/h (3 Bft)
15.10.2022 11:21 13,2 C 12,8 C 92 % 1009,7 hPa 0,0 l/m 8,0 km/h (2 Bft) S-SO 166 0 min 0,6 UV-I 89 W/m 11,9 C 12,2 C 14,5 km/h (3 Bft)
15.10.2022 11:24 13,2 C 12,8 C 93 % 1009,5 hPa 0,0 l/m 10,4 km/h (2 Bft) S 169 0 min 0,6 UV-I 94 W/m 12,1 C 10,9 C 17,7 km/h (3 Bft)
15.10.2022 11:27 13,2 C 12,8 C 93 % 1009,4 hPa 0,0 l/m 9,0 km/h (2 Bft) S-SO 160 0 min 0,7 UV-I 99 W/m 12,1 C 11,6 C 16,1 km/h (3 Bft)
15.10.2022 11:30 13,2 C 13,3 C 93 % 1009,5 hPa 0,0 l/m 9,1 km/h (2 Bft) SO 141 0 min 0,8 UV-I 101 W/m 12,1 C 11,6 C 16,1 km/h (3 Bft)
15.10.2022 11:33 13,2 C 12,8 C 93 % 1009,4 hPa 0,0 l/m 7,8 km/h (2 Bft) S 176 0 min 0,6 UV-I 81 W/m 12,1 C 12,3 C 16,1 km/h (3 Bft)
15.10.2022 11:36 13,3 C 12,8 C 93 % 1009,4 hPa 0,0 l/m 9,8 km/h (2 Bft) S-SO 167 0 min 0,7 UV-I 91 W/m 12,2 C 11,3 C 17,7 km/h (3 Bft)
15.10.2022 11:39 13,2 C 12,8 C 93 % 1009,4 hPa 0,0 l/m 12,5 km/h (3 Bft) S-SO 160 0 min 0,7 UV-I 93 W/m 12,1 C 10,0 C 20,9 km/h (4 Bft)
15.10.2022 11:42 13,3 C 13,3 C 93 % 1009,4 hPa 0,0 l/m 14,4 km/h (3 Bft) S 180 0 min 0,8 UV-I 99 W/m 12,2 C 9,4 C 24,1 km/h (4 Bft)
15.10.2022 11:45 13,4 C 13,3 C 93 % 1009,4 hPa 0,0 l/m 14,2 km/h (3 Bft) S-SO 165 0 min 0,8 UV-I 108 W/m 12,3 C 9,5 C 32,2 km/h (5 Bft)
15.10.2022 11:48 13,4 C 13,3 C 92 % 1009,5 hPa 0,0 l/m 12,5 km/h (3 Bft) S-SO 153 0 min 0,8 UV-I 101 W/m 12,1 C 10,2 C 20,9 km/h (4 Bft)
15.10.2022 11:51 13,4 C 13,3 C 92 % 1009,5 hPa 0,0 l/m 13,5 km/h (3 Bft) S-SO 155 0 min 0,9 UV-I 131 W/m 12,1 C 9,8 C 22,5 km/h (4 Bft)
15.10.2022 11:54 13,6 C 13,3 C 93 % 1009,4 hPa 0,0 l/m 12,7 km/h (3 Bft) S-SO 165 0 min 0,9 UV-I 133 W/m 12,5 C 10,4 C 22,5 km/h (4 Bft)
15.10.2022 11:57 13,7 C 13,3 C 93 % 1009,4 hPa 0,0 l/m 10,7 km/h (2 Bft) S 189 0 min 1,0 UV-I 150 W/m 12,6 C 11,3 C 27,4 km/h (4 Bft)
15.10.2022 12:00 13,7 C 13,9 C 92 % 1009,4 hPa 0,0 l/m 13,6 km/h (3 Bft) S 180 0 min 1,2 UV-I 198 W/m 12,4 C 10,1 C 24,1 km/h (4 Bft)
15.10.2022 12:03 13,8 C 13,9 C 92 % 1009,4 hPa 0,0 l/m 14,0 km/h (3 Bft) S 173 0 min 1,2 UV-I 181 W/m 12,5 C 10,1 C 25,7 km/h (4 Bft)
15.10.2022 12:06 13,9 C 13,9 C 92 % 1009,3 hPa 0,0 l/m 12,1 km/h (2 Bft) SO 128 0 min 1,2 UV-I 182 W/m 12,6 C 11,0 C 20,9 km/h (4 Bft)
15.10.2022 12:09 14,0 C 13,9 C 92 % 1009,5 hPa 0,0 l/m 11,9 km/h (2 Bft) S 175 0 min 1,1 UV-I 152 W/m 12,7 C 11,2 C 25,7 km/h (4 Bft)
15.10.2022 12:12 14,0 C 13,9 C 92 % 1009,3 hPa 0,0 l/m 16,0 km/h (3 Bft) SW 216 0 min 0,9 UV-I 137 W/m 12,7 C 9,6 C 24,1 km/h (4 Bft)
15.10.2022 12:15 14,1 C 13,9 C 92 % 1009,3 hPa 0,0 l/m 12,2 km/h (2 Bft) SO 142 0 min 1,0 UV-I 149 W/m 12,8 C 11,2 C 19,3 km/h (3 Bft)
15.10.2022 12:18 14,1 C 13,9 C 92 % 1009,4 hPa 0,0 l/m 13,7 km/h (3 Bft) S-SO 157 0 min 0,9 UV-I 137 W/m 12,8 C 10,6 C 27,4 km/h (4 Bft)
15.10.2022 12:21 14,1 C 13,9 C 91 % 1009,4 hPa 0,0 l/m 16,3 km/h (3 Bft) S-SO 148 0 min 0,9 UV-I 142 W/m 12,7 C 9,7 C 27,4 km/h (4 Bft)
15.10.2022 12:24 14,2 C 13,9 C 92 % 1009,2 hPa 0,0 l/m 12,0 km/h (2 Bft) SO 145 0 min 1,1 UV-I 160 W/m 12,9 C 11,4 C 17,7 km/h (3 Bft)
15.10.2022 12:27 14,2 C 14,4 C 92 % 1009,3 hPa 0,0 l/m 14,4 km/h (3 Bft) S-SO 147 0 min 1,2 UV-I 178 W/m 12,9 C 10,4 C 29,0 km/h (5 Bft)
15.10.2022 12:30 14,3 C 14,4 C 91 % 1009,3 hPa 0,0 l/m 17,1 km/h (3 Bft) SO 130 0 min 1,2 UV-I 188 W/m 12,8 C 9,7 C 25,7 km/h (4 Bft)
15.10.2022 12:33 14,3 C 14,4 C 91 % 1009,2 hPa 0,0 l/m 16,6 km/h (3 Bft) S 177 0 min 1,1 UV-I 161 W/m 12,8 C 9,8 C 27,4 km/h (4 Bft)
15.10.2022 12:36 14,3 C 13,9 C 91 % 1009,1 hPa 0,0 l/m 16,5 km/h (3 Bft) S 173 0 min 1,0 UV-I 149 W/m 12,8 C 9,9 C 29,0 km/h (5 Bft)
15.10.2022 12:39 14,4 C 13,9 C 91 % 1009,3 hPa 0,0 l/m 15,4 km/h (3 Bft) S 173 0 min 1,0 UV-I 145 W/m 12,9 C 10,3 C 25,7 km/h (4 Bft)
15.10.2022 12:42 14,4 C 14,4 C 91 % 1009,1 hPa 0,0 l/m 16,4 km/h (3 Bft) SO 144 0 min 1,0 UV-I 157 W/m 12,9 C 10,0 C 29,0 km/h (5 Bft)
15.10.2022 12:45 14,4 C 14,4 C 91 % 1009,3 hPa 0,0 l/m 12,8 km/h (3 Bft) S-SO 167 0 min 1,1 UV-I 169 W/m 12,9 C 11,3 C 24,1 km/h (4 Bft)
15.10.2022 12:48 14,5 C 14,4 C 91 % 1009,3 hPa 0,0 l/m 12,9 km/h (3 Bft) S 171 0 min 1,1 UV-I 170 W/m 13,0 C 11,3 C 22,5 km/h (4 Bft)
15.10.2022 12:51 14,5 C 14,4 C 91 % 1009,3 hPa 0,0 l/m 14,6 km/h (3 Bft) S-SO 153 0 min 1,1 UV-I 168 W/m 13,0 C 10,7 C 24,1 km/h (4 Bft)
15.10.2022 12:54 14,5 C 14,4 C 91 % 1009,2 hPa 0,0 l/m 16,7 km/h (3 Bft) S 178 0 min 1,0 UV-I 150 W/m 13,0 C 10,0 C 27,4 km/h (4 Bft)
15.10.2022 12:57 14,6 C 14,4 C 91 % 1009,2 hPa 0,0 l/m 13,5 km/h (3 Bft) S-SO 166 0 min 1,1 UV-I 171 W/m 13,1 C 11,2 C 25,7 km/h (4 Bft)
15.10.2022 13:00 14,6 C 14,4 C 91 % 1009,1 hPa 0,0 l/m 17,3 km/h (3 Bft) SO 142 0 min 1,2 UV-I 193 W/m 13,1 C 10,0 C 32,2 km/h (5 Bft)
15.10.2022 13:03 14,7 C 14,4 C 91 % 1009,2 hPa 0,0 l/m 13,4 km/h (3 Bft) S 182 0 min 1,2 UV-I 188 W/m 13,2 C 11,4 C 19,3 km/h (3 Bft)
15.10.2022 13:06 14,7 C 14,4 C 91 % 1009,2 hPa 0,0 l/m 15,3 km/h (3 Bft) S 177 0 min 1,1 UV-I 168 W/m 13,2 C 10,7 C 24,1 km/h (4 Bft)
15.10.2022 13:09 14,7 C 14,4 C 91 % 1009,3 hPa 0,0 l/m 17,4 km/h (3 Bft) S 173 0 min 1,1 UV-I 171 W/m 13,2 C 10,1 C 27,4 km/h (4 Bft)
15.10.2022 13:12 14,7 C 14,4 C 91 % 1009,2 hPa 0,0 l/m 15,9 km/h (3 Bft) SW 232 0 min 1,2 UV-I 186 W/m 13,2 C 10,5 C 24,1 km/h (4 Bft)
15.10.2022 13:15 14,8 C 14,4 C 91 % 1009,1 hPa 0,0 l/m 13,4 km/h (3 Bft) S 171 0 min 1,0 UV-I 141 W/m 13,3 C 11,5 C 22,5 km/h (4 Bft)
15.10.2022 13:18 14,8 C 14,4 C 91 % 1009,2 hPa 0,0 l/m 16,7 km/h (3 Bft) S 187 0 min 0,9 UV-I 138 W/m 13,3 C 10,4 C 25,7 km/h (4 Bft)
15.10.2022 13:21 14,8 C 14,4 C 91 % 1009,2 hPa 0,0 l/m 19,8 km/h (3 Bft) S-SO 151 0 min 1,0 UV-I 163 W/m 13,3 C 9,5 C 35,4 km/h (5 Bft)
15.10.2022 13:24 14,8 C 14,4 C 91 % 1009,1 hPa 0,0 l/m 15,1 km/h (3 Bft) S 170 0 min 1,2 UV-I 187 W/m 13,3 C 10,9 C 30,6 km/h (5 Bft)
15.10.2022 13:27 14,9 C 15,0 C 91 % 1009,2 hPa 0,0 l/m 13,4 km/h (3 Bft) S-SW 203 0 min 1,4 UV-I 215 W/m 13,4 C 11,6 C 24,1 km/h (4 Bft)
15.10.2022 13:30 14,9 C 14,4 C 91 % 1009,2 hPa 0,0 l/m 15,7 km/h (3 Bft) S-SO 159 0 min 1,2 UV-I 175 W/m 13,4 C 10,8 C 27,4 km/h (4 Bft)
15.10.2022 13:33 14,9 C 14,4 C 91 % 1009,1 hPa 0,0 l/m 15,6 km/h (3 Bft) S-SO 163 0 min 1,2 UV-I 175 W/m 13,4 C 10,9 C 25,7 km/h (4 Bft)
15.10.2022 13:36 14,9 C 15,0 C 91 % 1009,1 hPa 0,0 l/m 16,1 km/h (3 Bft) S-SO 150 0 min 1,2 UV-I 183 W/m 13,4 C 10,7 C 24,1 km/h (4 Bft)
15.10.2022 13:39 14,9 C 14,4 C 91 % 1009,1 hPa 0,0 l/m 16,3 km/h (3 Bft) S 176 0 min 1,2 UV-I 181 W/m 13,4 C 10,7 C 27,4 km/h (4 Bft)
15.10.2022 13:42 14,9 C 14,4 C 91 % 1009,0 hPa 0,0 l/m 16,4 km/h (3 Bft) SW 217 0 min 1,2 UV-I 204 W/m 13,4 C 10,6 C 25,7 km/h (4 Bft)
15.10.2022 13:45 14,9 C 14,4 C 91 % 1009,1 hPa 0,0 l/m 17,5 km/h (3 Bft) S 180 0 min 1,0 UV-I 154 W/m 13,4 C 10,3 C 29,0 km/h (5 Bft)
15.10.2022 13:48 15,0 C 15,0 C 92 % 1009,2 hPa 0,0 l/m 14,3 km/h (3 Bft) S-SO 154 0 min 1,3 UV-I 210 W/m 13,7 C 11,4 C 22,5 km/h (4 Bft)
15.10.2022 13:51 15,1 C 15,0 C 91 % 1009,1 hPa 0,0 l/m 15,2 km/h (3 Bft) S 169 0 min 1,2 UV-I 174 W/m 13,6 C 11,2 C 27,4 km/h (4 Bft)
15.10.2022 13:54 15,1 C 15,0 C 91 % 1009,1 hPa 0,0 l/m 17,8 km/h (3 Bft) S-SW 194 0 min 1,4 UV-I 229 W/m 13,6 C 10,5 C 32,2 km/h (5 Bft)
15.10.2022 13:57 15,1 C 14,4 C 91 % 1008,9 hPa 0,0 l/m 17,7 km/h (3 Bft) S 183 0 min 1,0 UV-I 154 W/m 13,6 C 10,5 C 33,8 km/h (5 Bft)
15.10.2022 14:00 15,1 C 15,0 C 91 % 1009,0 hPa 0,0 l/m 16,2 km/h (3 Bft) S-SO 167 0 min 1,0 UV-I 160 W/m 13,6 C 10,9 C 25,7 km/h (4 Bft)
15.10.2022 14:03 15,2 C 15,0 C 91 % 1009,0 hPa 0,0 l/m 14,8 km/h (3 Bft) S 190 0 min 1,3 UV-I 218 W/m 13,7 C 11,5 C 25,7 km/h (4 Bft)
15.10.2022 14:06 15,1 C 14,4 C 91 % 1009,1 hPa 0,0 l/m 17,3 km/h (3 Bft) S-SW 205 0 min 1,1 UV-I 156 W/m 13,6 C 10,6 C 30,6 km/h (5 Bft)
15.10.2022 14:09 15,1 C 15,0 C 92 % 1009,2 hPa 0,0 l/m 13,0 km/h (3 Bft) S 173 0 min 1,1 UV-I 185 W/m 13,8 C 12,0 C 17,7 km/h (3 Bft)
15.10.2022 14:12 15,2 C 15,0 C 91 % 1009,0 hPa 0,0 l/m 19,7 km/h (3 Bft) S 189 0 min 1,1 UV-I 183 W/m 13,7 C 10,1 C 35,4 km/h (5 Bft)
15.10.2022 14:15 15,3 C 15,0 C 91 % 1009,0 hPa 0,0 l/m 15,4 km/h (3 Bft) SW 221 0 min 1,4 UV-I 240 W/m 13,8 C 11,4 C 25,7 km/h (4 Bft)
15.10.2022 14:18 15,4 C 15,6 C 91 % 1008,9 hPa 0,0 l/m 16,0 km/h (3 Bft) S-SW 192 0 min 1,6 UV-I 252 W/m 13,9 C 11,4 C 27,4 km/h (4 Bft)
15.10.2022 14:21 15,4 C 15,0 C 91 % 1009,1 hPa 0,0 l/m 16,9 km/h (3 Bft) S-SW 204 0 min 1,3 UV-I 163 W/m 13,9 C 11,1 C 27,4 km/h (4 Bft)
15.10.2022 14:24 15,3 C 14,4 C 91 % 1009,1 hPa 0,0 l/m 18,8 km/h (3 Bft) SW 220 0 min 0,8 UV-I 122 W/m 13,8 C 10,4 C 29,0 km/h (5 Bft)
15.10.2022 14:27 15,2 C 14,4 C 91 % 1009,0 hPa 0,0 l/m 16,9 km/h (3 Bft) S 170 0 min 0,8 UV-I 123 W/m 13,7 C 10,8 C 24,1 km/h (4 Bft)
15.10.2022 14:30 15,2 C 15,0 C 91 % 1009,0 hPa 0,2 l/m 15,8 km/h (3 Bft) S-SW 204 0 min 1,1 UV-I 179 W/m 13,7 C 11,2 C 27,4 km/h (4 Bft)
15.10.2022 14:33 15,2 C 15,0 C 92 % 1009,1 hPa 0,0 l/m 19,4 km/h (3 Bft) S-SW 203 0 min 1,4 UV-I 215 W/m 13,9 C 10,2 C 29,0 km/h (5 Bft)
15.10.2022 14:36 15,2 C 15,0 C 91 % 1009,0 hPa 0,0 l/m 16,6 km/h (3 Bft) S 183 0 min 1,2 UV-I 148 W/m 13,7 C 10,9 C 25,7 km/h (4 Bft)
15.10.2022 14:39 15,2 C 14,4 C 91 % 1008,9 hPa 0,0 l/m 18,7 km/h (3 Bft) S 191 0 min 1,0 UV-I 135 W/m 13,7 C 10,3 C 33,8 km/h (5 Bft)
15.10.2022 14:42 15,2 C 15,0 C 91 % 1009,0 hPa 0,0 l/m 16,0 km/h (3 Bft) S 190 0 min 0,9 UV-I 154 W/m 13,7 C 11,1 C 27,4 km/h (4 Bft)
15.10.2022 14:45 15,2 C 15,0 C 92 % 1008,9 hPa 0,2 l/m 15,0 km/h (3 Bft) S 185 0 min 1,1 UV-I 199 W/m 13,9 C 11,4 C 24,1 km/h (4 Bft)
15.10.2022 14:48 15,3 C 15,0 C 92 % 1008,8 hPa 0,0 l/m 13,8 km/h (3 Bft) S-SW 198 0 min 0,9 UV-I 119 W/m 14,0 C 12,0 C 24,1 km/h (4 Bft)
15.10.2022 14:51 15,3 C 14,4 C 91 % 1008,9 hPa 0,0 l/m 16,9 km/h (3 Bft) SW 214 0 min 0,8 UV-I 112 W/m 13,8 C 11,0 C 25,7 km/h (4 Bft)
15.10.2022 14:54 15,3 C 15,0 C 92 % 1008,7 hPa 0,0 l/m 16,5 km/h (3 Bft) S 181 0 min 0,9 UV-I 139 W/m 14,0 C 11,1 C 29,0 km/h (5 Bft)
15.10.2022 14:57 15,3 C 15,0 C 92 % 1008,7 hPa 0,0 l/m 15,5 km/h (3 Bft) S 188 0 min 1,1 UV-I 185 W/m 14,0 C 11,4 C 24,1 km/h (4 Bft)
15.10.2022 15:00 15,4 C 15,0 C 91 % 1008,7 hPa 0,0 l/m 13,9 km/h (3 Bft) S-SW 202 0 min 1,0 UV-I 128 W/m 13,9 C 12,0 C 25,7 km/h (4 Bft)
15.10.2022 15:03 15,4 C 15,0 C 91 % 1008,7 hPa 0,0 l/m 18,0 km/h (3 Bft) S 182 0 min 0,8 UV-I 107 W/m 13,9 C 10,8 C 30,6 km/h (5 Bft)
15.10.2022 15:06 15,4 C 15,0 C 91 % 1008,6 hPa 0,0 l/m 14,4 km/h (3 Bft) S-SW 209 0 min 0,8 UV-I 159 W/m 13,9 C 11,9 C 20,9 km/h (4 Bft)
15.10.2022 15:09 15,4 C 15,6 C 91 % 1008,7 hPa 0,0 l/m 16,5 km/h (3 Bft) S-SW 200 0 min 1,3 UV-I 232 W/m 13,9 C 11,2 C 27,4 km/h (4 Bft)
15.10.2022 15:12 15,4 C 15,6 C 91 % 1008,6 hPa 0,0 l/m 18,4 km/h (3 Bft) S 171 0 min 1,2 UV-I 175 W/m 13,9 C 10,7 C 27,4 km/h (4 Bft)
15.10.2022 15:15 15,5 C 15,0 C 91 % 1008,7 hPa 0,0 l/m 17,9 km/h (3 Bft) S 185 0 min 1,0 UV-I 145 W/m 14,0 C 10,9 C 30,6 km/h (5 Bft)
15.10.2022 15:18 15,4 C 15,0 C 91 % 1008,6 hPa 0,0 l/m 13,9 km/h (3 Bft) S 185 0 min 0,9 UV-I 113 W/m 13,9 C 12,0 C 19,3 km/h (3 Bft)
15.10.2022 15:21 15,5 C 15,6 C 91 % 1008,7 hPa 0,0 l/m 14,7 km/h (3 Bft) S-SO 159 0 min 0,8 UV-I 123 W/m 14,0 C 11,9 C 27,4 km/h (4 Bft)
15.10.2022 15:24 15,4 C 15,0 C 90 % 1008,6 hPa 0,0 l/m 14,1 km/h (3 Bft) S 186 0 min 0,6 UV-I 94 W/m 13,8 C 12,0 C 24,1 km/h (4 Bft)
15.10.2022 15:27 15,4 C 15,0 C 90 % 1008,7 hPa 0,0 l/m 20,8 km/h (4 Bft) S 181 0 min 0,6 UV-I 92 W/m 13,8 C 10,1 C 35,4 km/h (5 Bft)
15.10.2022 15:30 15,3 C 14,4 C 90 % 1008,6 hPa 0,0 l/m 18,0 km/h (3 Bft) S-SW 196 0 min 0,6 UV-I 103 W/m 13,7 C 10,7 C 27,4 km/h (4 Bft)
15.10.2022 15:33 15,3 C 15,0 C 91 % 1008,7 hPa 0,0 l/m 17,2 km/h (3 Bft) S-SW 207 0 min 0,8 UV-I 134 W/m 13,8 C 10,9 C 35,4 km/h (5 Bft)
15.10.2022 15:36 15,4 C 15,0 C 90 % 1008,8 hPa 0,0 l/m 16,5 km/h (3 Bft) S-SW 192 0 min 1,0 UV-I 147 W/m 13,8 C 11,2 C 22,5 km/h (4 Bft)
15.10.2022 15:39 15,4 C 15,0 C 91 % 1008,8 hPa 0,0 l/m 17,0 km/h (3 Bft) SW 216 0 min 0,9 UV-I 134 W/m 13,9 C 11,1 C 25,7 km/h (4 Bft)
15.10.2022 15:42 15,4 C 15,0 C 90 % 1008,8 hPa 0,0 l/m 14,0 km/h (3 Bft) S-SO 159 0 min 0,4 UV-I 89 W/m 13,8 C 12,0 C 22,5 km/h (4 Bft)
15.10.2022 15:45 15,5 C 15,6 C 91 % 1008,8 hPa 0,0 l/m 12,9 km/h (3 Bft) S-SO 167 0 min 0,9 UV-I 192 W/m 14,0 C 12,5 C 25,7 km/h (4 Bft)
15.10.2022 15:48 15,6 C 15,6 C 90 % 1008,8 hPa 0,0 l/m 15,7 km/h (3 Bft) SW 223 0 min 1,1 UV-I 203 W/m 14,0 C 11,7 C 30,6 km/h (5 Bft)
15.10.2022 15:51 15,6 C 15,6 C 90 % 1008,9 hPa 0,0 l/m 17,4 km/h (3 Bft) S-SW 203 0 min 1,0 UV-I 166 W/m 14,0 C 11,2 C 25,7 km/h (4 Bft)
15.10.2022 15:54 15,7 C 15,6 C 90 % 1008,8 hPa 0,0 l/m 15,8 km/h (3 Bft) S 185 0 min 1,1 UV-I 237 W/m 14,1 C 11,8 C 24,1 km/h (4 Bft)
15.10.2022 15:57 15,7 C 16,1 C 90 % 1008,7 hPa 0,0 l/m 17,6 km/h (3 Bft) S 186 0 min 1,1 UV-I 195 W/m 14,1 C 11,3 C 43,5 km/h (6 Bft)
15.10.2022 16:00 15,6 C 15,6 C 89 % 1009,0 hPa 0,0 l/m 20,7 km/h (4 Bft) SW 233 0 min 0,9 UV-I 146 W/m 13,8 C 10,4 C 38,6 km/h (5 Bft)
15.10.2022 16:03 15,6 C 15,0 C 89 % 1008,7 hPa 0,0 l/m 19,8 km/h (3 Bft) S-SW 205 0 min 0,7 UV-I 132 W/m 13,8 C 10,6 C 29,0 km/h (5 Bft)
15.10.2022 16:06 15,6 C 15,6 C 89 % 1008,7 hPa 0,0 l/m 18,3 km/h (3 Bft) S-SO 168 0 min 0,8 UV-I 140 W/m 13,8 C 11,0 C 27,4 km/h (4 Bft)
15.10.2022 16:09 15,5 C 15,0 C 89 % 1008,9 hPa 0,0 l/m 18,3 km/h (3 Bft) SW 219 0 min 0,6 UV-I 110 W/m 13,7 C 10,8 C 33,8 km/h (5 Bft)
15.10.2022 16:12 15,5 C 15,6 C 88 % 1008,8 hPa 0,0 l/m 20,6 km/h (4 Bft) S 188 0 min 0,6 UV-I 100 W/m 13,5 C 10,2 C 35,4 km/h (5 Bft)
15.10.2022 16:15 15,5 C 15,6 C 88 % 1008,8 hPa 0,0 l/m 16,6 km/h (3 Bft) S 182 0 min 0,5 UV-I 102 W/m 13,5 C 11,3 C 30,6 km/h (5 Bft)
15.10.2022 16:18 15,5 C 15,6 C 88 % 1009,0 hPa 0,0 l/m 19,1 km/h (3 Bft) S-SO 166 0 min 0,5 UV-I 104 W/m 13,5 C 10,6 C 30,6 km/h (5 Bft)
15.10.2022 16:21 15,5 C 15,0 C 88 % 1008,9 hPa 0,0 l/m 24,5 km/h (4 Bft) S-SW 205 0 min 0,5 UV-I 96 W/m 13,5 C 9,4 C 35,4 km/h (5 Bft)
15.10.2022 16:24 15,6 C 15,6 C 88 % 1009,0 hPa 0,0 l/m 13,7 km/h (3 Bft) SW 232 0 min 0,2 UV-I 91 W/m 13,6 C 12,3 C 24,1 km/h (4 Bft)
15.10.2022 16:27 15,6 C 15,6 C 88 % 1009,0 hPa 0,0 l/m 17,3 km/h (3 Bft) S-SW 194 0 min 0,5 UV-I 93 W/m 13,6 C 11,2 C 33,8 km/h (5 Bft)
15.10.2022 16:30 15,6 C 16,1 C 88 % 1008,8 hPa 0,0 l/m 17,1 km/h (3 Bft) S-SW 204 0 min 0,7 UV-I 147 W/m 13,6 C 11,3 C 27,4 km/h (4 Bft)
15.10.2022 16:33 15,6 C 15,6 C 88 % 1008,7 hPa 0,0 l/m 15,1 km/h (3 Bft) SW 225 0 min 0,8 UV-I 138 W/m 13,6 C 11,9 C 22,5 km/h (4 Bft)
15.10.2022 16:36 15,6 C 15,6 C 88 % 1009,0 hPa 0,0 l/m 11,7 km/h (2 Bft) S 186 0 min 0,7 UV-I 128 W/m 13,6 C 13,1 C 17,7 km/h (3 Bft)
15.10.2022 16:39 15,5 C 15,6 C 88 % 1009,0 hPa 0,0 l/m 19,4 km/h (3 Bft) S-SW 207 0 min 0,5 UV-I 99 W/m 13,5 C 10,5 C 27,4 km/h (4 Bft)
15.10.2022 16:42 15,5 C 15,6 C 88 % 1009,0 hPa 0,0 l/m 16,6 km/h (3 Bft) S 171 0 min 0,2 UV-I 93 W/m 13,5 C 11,3 C 27,4 km/h (4 Bft)
15.10.2022 16:45 15,5 C 15,6 C 87 % 1009,0 hPa 0,0 l/m 15,6 km/h (3 Bft) S-SW 208 0 min 0,5 UV-I 103 W/m 13,3 C 11,6 C 25,7 km/h (4 Bft)
15.10.2022 16:48 15,4 C 15,6 C 87 % 1009,1 hPa 0,0 l/m 15,9 km/h (3 Bft) S 189 0 min 0,5 UV-I 91 W/m 13,2 C 11,4 C 22,5 km/h (4 Bft)
15.10.2022 16:51 15,4 C 15,0 C 87 % 1009,1 hPa 0,0 l/m 15,1 km/h (3 Bft) S 177 0 min 0,0 UV-I 81 W/m 13,2 C 11,6 C 33,8 km/h (5 Bft)
15.10.2022 16:54 15,4 C 15,6 C 87 % 1009,1 hPa 0,0 l/m 15,2 km/h (3 Bft) S 170 0 min 0,3 UV-I 95 W/m 13,2 C 11,6 C 24,1 km/h (4 Bft)
15.10.2022 16:57 15,4 C 15,6 C 87 % 1009,1 hPa 0,0 l/m 13,8 km/h (3 Bft) S 182 0 min 0,5 UV-I 97 W/m 13,2 C 12,1 C 22,5 km/h (4 Bft)
15.10.2022 17:00 15,3 C 15,0 C 88 % 1009,2 hPa 0,0 l/m 11,2 km/h (2 Bft) S-SW 196 0 min 0,2 UV-I 79 W/m 13,3 C 12,9 C 16,1 km/h (3 Bft)
15.10.2022 17:03 15,4 C 15,0 C 88 % 1009,3 hPa 0,0 l/m 13,6 km/h (3 Bft) S 186 0 min 0,0 UV-I 69 W/m 13,4 C 12,1 C 22,5 km/h (4 Bft)
15.10.2022 17:06 15,3 C 15,0 C 88 % 1009,2 hPa 0,0 l/m 15,2 km/h (3 Bft) SW 229 0 min 0,0 UV-I 66 W/m 13,3 C 11,5 C 24,1 km/h (4 Bft)
15.10.2022 17:09 15,3 C 15,0 C 88 % 1009,2 hPa 0,0 l/m 13,4 km/h (3 Bft) S-SO 162 0 min 0,0 UV-I 58 W/m 13,3 C 12,1 C 24,1 km/h (4 Bft)
15.10.2022 17:12 15,3 C 15,0 C 88 % 1009,2 hPa 0,0 l/m 12,7 km/h (3 Bft) S 170 0 min 0,0 UV-I 50 W/m 13,3 C 12,4 C 19,3 km/h (3 Bft)
15.10.2022 17:15 15,2 C 15,0 C 88 % 1009,3 hPa 0,0 l/m 13,8 km/h (3 Bft) S 189 0 min 0,0 UV-I 55 W/m 13,2 C 11,8 C 25,7 km/h (4 Bft)
15.10.2022 17:18 15,2 C 15,0 C 88 % 1009,3 hPa 0,0 l/m 15,1 km/h (3 Bft) S 183 0 min 0,0 UV-I 58 W/m 13,2 C 11,4 C 25,7 km/h (4 Bft)
15.10.2022 17:21 15,2 C 15,0 C 88 % 1009,3 hPa 0,0 l/m 12,9 km/h (3 Bft) S-SW 195 0 min 0,0 UV-I 68 W/m 13,2 C 12,2 C 25,7 km/h (4 Bft)
15.10.2022 17:24 15,2 C 15,0 C 88 % 1009,3 hPa 0,0 l/m 13,4 km/h (3 Bft) S-SW 206 0 min 0,0 UV-I 57 W/m 13,2 C 12,0 C 22,5 km/h (4 Bft)
15.10.2022 17:27 15,2 C 15,0 C 88 % 1009,4 hPa 0,0 l/m 14,0 km/h (3 Bft) S-SO 167 0 min 0,0 UV-I 50 W/m 13,2 C 11,8 C 22,5 km/h (4 Bft)
15.10.2022 17:30 15,1 C 15,0 C 88 % 1009,3 hPa 0,0 l/m 15,3 km/h (3 Bft) S-SW 198 0 min 0,0 UV-I 48 W/m 13,1 C 11,2 C 27,4 km/h (4 Bft)
15.10.2022 17:33 15,1 C 15,0 C 88 % 1009,3 hPa 0,0 l/m 12,7 km/h (3 Bft) S 186 0 min 0,0 UV-I 58 W/m 13,1 C 12,1 C 29,0 km/h (5 Bft)
15.10.2022 17:36 15,1 C 15,0 C 88 % 1009,2 hPa 0,0 l/m 10,3 km/h (2 Bft) S 170 0 min 0,0 UV-I 52 W/m 13,1 C 13,1 C 17,7 km/h (3 Bft)
15.10.2022 17:39 15,1 C 14,4 C 88 % 1009,5 hPa 0,0 l/m 15,3 km/h (3 Bft) S 188 0 min 0,0 UV-I 39 W/m 13,1 C 11,2 C 22,5 km/h (4 Bft)
15.10.2022 17:42 15,1 C 14,4 C 88 % 1009,4 hPa 0,0 l/m 12,3 km/h (3 Bft) S-SW 212 0 min 0,0 UV-I 32 W/m 13,1 C 12,3 C 19,3 km/h (3 Bft)
15.10.2022 17:45 15,1 C 14,4 C 88 % 1009,4 hPa 0,0 l/m 14,1 km/h (3 Bft) S-SW 192 0 min 0,0 UV-I 25 W/m 13,1 C 11,6 C 22,5 km/h (4 Bft)
15.10.2022 17:48 15,1 C 14,4 C 88 % 1009,3 hPa 0,0 l/m 11,2 km/h (2 Bft) S-SO 165 0 min 0,0 UV-I 25 W/m 13,1 C 12,7 C 24,1 km/h (4 Bft)
15.10.2022 17:51 15,0 C 14,4 C 88 % 1009,4 hPa 0,0 l/m 10,3 km/h (2 Bft) S-SW 192 0 min 0,0 UV-I 28 W/m 13,0 C 13,0 C 17,7 km/h (3 Bft)
15.10.2022 17:54 15,0 C 14,4 C 88 % 1009,4 hPa 0,0 l/m 10,2 km/h (2 Bft) S 171 0 min 0,0 UV-I 32 W/m 13,0 C 13,0 C 16,1 km/h (3 Bft)
15.10.2022 17:57 15,0 C 14,4 C 88 % 1009,4 hPa 0,0 l/m 9,7 km/h (2 Bft) S-SO 156 0 min 0,0 UV-I 26 W/m 13,0 C 13,3 C 17,7 km/h (3 Bft)
15.10.2022 18:00 14,9 C 14,4 C 89 % 1009,4 hPa 0,0 l/m 7,7 km/h (2 Bft) S-SW 196 0 min 0,0 UV-I 28 W/m 13,1 C 14,2 C 14,5 km/h (3 Bft)
15.10.2022 18:03 14,9 C 14,4 C 89 % 1009,5 hPa 0,0 l/m 9,2 km/h (2 Bft) S 173 0 min 0,0 UV-I 32 W/m 13,1 C 13,4 C 17,7 km/h (3 Bft)
15.10.2022 18:06 14,8 C 14,4 C 88 % 1009,6 hPa 0,0 l/m 17,3 km/h (3 Bft) S 182 0 min 0,0 UV-I 29 W/m 12,8 C 10,2 C 27,4 km/h (4 Bft)
15.10.2022 18:09 14,8 C 13,9 C 88 % 1009,6 hPa 0,0 l/m 12,1 km/h (2 Bft) SW 218 0 min 0,0 UV-I 25 W/m 12,8 C 12,0 C 19,3 km/h (3 Bft)
15.10.2022 18:12 14,8 C 13,9 C 88 % 1009,6 hPa 0,0 l/m 13,4 km/h (3 Bft) S 188 0 min 0,0 UV-I 20 W/m 12,8 C 11,5 C 24,1 km/h (4 Bft)
15.10.2022 18:15 14,8 C 13,9 C 88 % 1009,7 hPa 0,0 l/m 12,9 km/h (3 Bft) S-SO 164 0 min 0,0 UV-I 18 W/m 12,8 C 11,7 C 20,9 km/h (4 Bft)
15.10.2022 18:18 14,8 C 13,9 C 88 % 1009,7 hPa 0,0 l/m 13,7 km/h (3 Bft) S-SO 159 0 min 0,0 UV-I 12 W/m 12,8 C 11,4 C 24,1 km/h (4 Bft)
15.10.2022 18:21 14,8 C 13,9 C 88 % 1009,7 hPa 0,0 l/m 9,5 km/h (2 Bft) S-SO 157 0 min 0,0 UV-I 9 W/m 12,8 C 13,1 C 16,1 km/h (3 Bft)
15.10.2022 18:24 14,8 C 14,4 C 88 % 1009,7 hPa 0,0 l/m 15,4 km/h (3 Bft) S 175 0 min 0,0 UV-I 6 W/m 12,8 C 10,8 C 20,9 km/h (4 Bft)
15.10.2022 18:27 14,8 C 13,9 C 88 % 1009,7 hPa 0,0 l/m 13,8 km/h (3 Bft) S 189 0 min 0,0 UV-I 4 W/m 12,8 C 11,4 C 24,1 km/h (4 Bft)
15.10.2022 18:30 14,8 C 13,9 C 88 % 1009,9 hPa 0,0 l/m 10,3 km/h (2 Bft) W-SW 239 0 min 0,0 UV-I 0 W/m 12,8 C 12,8 C 14,5 km/h (3 Bft)
15.10.2022 18:33 14,8 C 13,9 C 88 % 1010,0 hPa 0,0 l/m 12,6 km/h (3 Bft) W-NW 286 0 min 0,0 UV-I 0 W/m 12,8 C 11,8 C 22,5 km/h (4 Bft)
15.10.2022 18:36 14,6 C 13,9 C 88 % 1010,0 hPa 0,0 l/m 12,0 km/h (2 Bft) W-SW 239 0 min 0,0 UV-I 0 W/m 12,6 C 11,8 C 20,9 km/h (4 Bft)
15.10.2022 18:39 14,3 C 13,9 C 89 % 1010,1 hPa 0,0 l/m 8,1 km/h (2 Bft) W-SW 240 0 min 0,0 UV-I 0 W/m 12,5 C 13,3 C 12,9 km/h (3 Bft)
15.10.2022 18:42 14,2 C 13,3 C 89 % 1010,1 hPa 0,0 l/m 7,8 km/h (2 Bft) SW 227 0 min 0,0 UV-I 0 W/m 12,4 C 13,4 C 12,9 km/h (3 Bft)
15.10.2022 18:45 14,1 C 13,3 C 89 % 1010,2 hPa 0,0 l/m 10,1 km/h (2 Bft) SW 236 0 min 0,0 UV-I 0 W/m 12,3 C 12,1 C 19,3 km/h (3 Bft)
15.10.2022 18:48 14,1 C 13,3 C 89 % 1010,2 hPa 0,0 l/m 5,0 km/h (1 Bft) W-SW 238 0 min 0,0 UV-I 0 W/m 12,3 C 14,1 C 14,5 km/h (3 Bft)
15.10.2022 18:51 14,0 C 13,3 C 90 % 1010,2 hPa 0,0 l/m 5,1 km/h (1 Bft) SW 236 0 min 0,0 UV-I 0 W/m 12,4 C 14,0 C 8,0 km/h (2 Bft)
15.10.2022 18:54 13,9 C 13,3 C 90 % 1010,3 hPa 0,0 l/m 6,0 km/h (2 Bft) W-SW 238 0 min 0,0 UV-I 0 W/m 12,3 C 13,9 C 12,9 km/h (3 Bft)
15.10.2022 18:57 13,9 C 13,3 C 90 % 1010,3 hPa 0,0 l/m 5,0 km/h (1 Bft) W 264 0 min 0,0 UV-I 0 W/m 12,3 C 13,9 C 9,7 km/h (2 Bft)
15.10.2022 19:00 13,8 C 13,3 C 90 % 1010,4 hPa 0,0 l/m 9,5 km/h (2 Bft) SW 232 0 min 0,0 UV-I 0 W/m 12,2 C 12,0 C 19,3 km/h (3 Bft)
15.10.2022 19:03 13,8 C 13,3 C 90 % 1010,5 hPa 0,0 l/m 5,2 km/h (1 Bft) W-SW 238 0 min 0,0 UV-I 0 W/m 12,2 C 13,8 C 9,7 km/h (2 Bft)
15.10.2022 19:06 13,8 C 12,8 C 90 % 1010,5 hPa 0,0 l/m 4,4 km/h (1 Bft) W-SW 242 0 min 0,0 UV-I 0 W/m 12,2 C 13,8 C 8,0 km/h (2 Bft)
15.10.2022 19:09 13,7 C 12,8 C 90 % 1010,6 hPa 0,0 l/m 7,6 km/h (2 Bft) W 262 0 min 0,0 UV-I 0 W/m 12,1 C 13,0 C 12,9 km/h (3 Bft)
15.10.2022 19:12 13,7 C 12,8 C 90 % 1010,6 hPa 0,0 l/m 6,1 km/h (2 Bft) S-SW 209 0 min 0,0 UV-I 0 W/m 12,1 C 13,7 C 8,0 km/h (2 Bft)
15.10.2022 19:15 13,6 C 12,8 C 90 % 1010,6 hPa 0,0 l/m 7,6 km/h (2 Bft) SW 221 0 min 0,0 UV-I 0 W/m 12,0 C 12,9 C 12,9 km/h (3 Bft)
15.10.2022 19:18 13,6 C 12,8 C 90 % 1010,7 hPa 0,0 l/m 5,5 km/h (1 Bft) S-SW 208 0 min 0,0 UV-I 0 W/m 12,0 C 13,6 C 9,7 km/h (2 Bft)
15.10.2022 19:21 13,6 C 12,8 C 90 % 1010,8 hPa 0,0 l/m 5,8 km/h (2 Bft) SW 226 0 min 0,0 UV-I 0 W/m 12,0 C 13,6 C 9,7 km/h (2 Bft)
15.10.2022 19:24 13,6 C 12,8 C 91 % 1011,0 hPa 0,0 l/m 7,6 km/h (2 Bft) W-SW 242 0 min 0,0 UV-I 0 W/m 12,2 C 12,9 C 14,5 km/h (3 Bft)
15.10.2022 19:27 13,6 C 12,8 C 91 % 1011,0 hPa 0,0 l/m 9,0 km/h (2 Bft) SW 227 0 min 0,0 UV-I 0 W/m 12,2 C 12,1 C 14,5 km/h (3 Bft)
15.10.2022 19:30 13,6 C 12,8 C 91 % 1011,1 hPa 0,0 l/m 7,9 km/h (2 Bft) S-SW 198 0 min 0,0 UV-I 0 W/m 12,2 C 12,7 C 14,5 km/h (3 Bft)
15.10.2022 19:33 13,6 C 12,8 C 91 % 1011,1 hPa 0,0 l/m 9,5 km/h (2 Bft) SW 217 0 min 0,0 UV-I 0 W/m 12,2 C 11,8 C 14,5 km/h (3 Bft)
15.10.2022 19:36 13,5 C 12,8 C 90 % 1011,2 hPa 0,0 l/m 9,2 km/h (2 Bft) S-SW 200 0 min 0,0 UV-I 0 W/m 11,9 C 11,9 C 14,5 km/h (3 Bft)
15.10.2022 19:39 13,5 C 12,8 C 90 % 1011,2 hPa 0,0 l/m 8,8 km/h (2 Bft) S-SW 196 0 min 0,0 UV-I 0 W/m 11,9 C 12,1 C 14,5 km/h (3 Bft)
15.10.2022 19:42 13,4 C 12,8 C 90 % 1011,3 hPa 0,0 l/m 7,2 km/h (2 Bft) S-SW 199 0 min 0,0 UV-I 0 W/m 11,8 C 12,9 C 14,5 km/h (3 Bft)
15.10.2022 19:45 13,4 C 12,8 C 90 % 1011,3 hPa 0,0 l/m 7,5 km/h (2 Bft) S-SW 202 0 min 0,0 UV-I 0 W/m 11,8 C 12,7 C 14,5 km/h (3 Bft)
15.10.2022 19:48 13,4 C 12,8 C 90 % 1011,3 hPa 0,0 l/m 5,2 km/h (1 Bft) S-SW 200 0 min 0,0 UV-I 0 W/m 11,8 C 13,4 C 11,3 km/h (2 Bft)
15.10.2022 19:51 13,4 C 12,8 C 91 % 1011,4 hPa 0,0 l/m 6,2 km/h (2 Bft) SW 220 0 min 0,0 UV-I 0 W/m 12,0 C 13,4 C 12,9 km/h (3 Bft)
15.10.2022 19:54 13,3 C 12,8 C 91 % 1011,5 hPa 0,0 l/m 6,1 km/h (2 Bft) W-SW 240 0 min 0,0 UV-I 0 W/m 11,9 C 13,3 C 11,3 km/h (2 Bft)
15.10.2022 19:57 13,3 C 12,2 C 91 % 1011,5 hPa 0,0 l/m 7,0 km/h (2 Bft) S-SW 209 0 min 0,0 UV-I 0 W/m 11,9 C 12,9 C 12,9 km/h (3 Bft)
15.10.2022 20:00 13,3 C 12,2 C 91 % 1011,5 hPa 0,0 l/m 4,6 km/h (1 Bft) S-SW 200 0 min 0,0 UV-I 0 W/m 11,9 C 13,3 C 8,0 km/h (2 Bft)
15.10.2022 20:03 13,3 C 12,2 C 91 % 1011,6 hPa 0,0 l/m 2,9 km/h (1 Bft) S 180 0 min 0,0 UV-I 0 W/m 11,9 C 13,3 C 6,4 km/h (2 Bft)
15.10.2022 20:07 13,3 C 12,8 C 91 % 1011,7 hPa 0,0 l/m 3,6 km/h (1 Bft) S-SW 197 0 min 0,0 UV-I 0 W/m 11,9 C 13,3 C 6,4 km/h (2 Bft)
15.10.2022 20:09 13,2 C 12,8 C 91 % 1011,7 hPa 0,0 l/m 4,7 km/h (1 Bft) S-SW 204 0 min 0,0 UV-I 0 W/m 11,8 C 13,2 C 6,4 km/h (2 Bft)
15.10.2022 20:12 13,3 C 12,8 C 91 % 1011,6 hPa 0,0 l/m 4,8 km/h (1 Bft) S-SW 205 0 min 0,0 UV-I 0 W/m 11,9 C 13,3 C 8,0 km/h (2 Bft)
15.10.2022 20:15 13,3 C 12,8 C 91 % 1011,7 hPa 0,0 l/m 4,6 km/h (1 Bft) S 179 0 min 0,0 UV-I 0 W/m 11,9 C 13,3 C 6,4 km/h (2 Bft)
15.10.2022 20:18 13,3 C 12,8 C 91 % 1011,6 hPa 0,0 l/m 6,0 km/h (2 Bft) S 173 0 min 0,0 UV-I 0 W/m 11,9 C 13,3 C 9,7 km/h (2 Bft)
15.10.2022 20:21 13,3 C 12,8 C 91 % 1011,6 hPa 0,0 l/m 7,8 km/h (2 Bft) S-SW 205 0 min 0,0 UV-I 0 W/m 11,9 C 12,4 C 16,1 km/h (3 Bft)
15.10.2022 20:24 13,3 C 12,8 C 91 % 1011,6 hPa 0,0 l/m 4,6 km/h (1 Bft) S-SW 212 0 min 0,0 UV-I 0 W/m 11,9 C 13,3 C 8,0 km/h (2 Bft)
15.10.2022 20:27 13,3 C 12,8 C 91 % 1011,5 hPa 0,0 l/m 6,8 km/h (2 Bft) S 190 0 min 0,0 UV-I 0 W/m 11,9 C 13,1 C 9,7 km/h (2 Bft)
15.10.2022 20:30 13,3 C 12,8 C 91 % 1011,5 hPa 0,0 l/m 6,0 km/h (2 Bft) S-SW 194 0 min 0,0 UV-I 0 W/m 11,9 C 13,3 C 11,3 km/h (2 Bft)
15.10.2022 20:33 13,3 C 12,8 C 91 % 1011,5 hPa 0,0 l/m 7,8 km/h (2 Bft) S-SW 202 0 min 0,0 UV-I 0 W/m 11,9 C 12,4 C 17,7 km/h (3 Bft)
15.10.2022 20:36 13,3 C 12,8 C 91 % 1011,5 hPa 0,0 l/m 5,9 km/h (2 Bft) S-SW 203 0 min 0,0 UV-I 0 W/m 11,9 C 13,3 C 8,0 km/h (2 Bft)
15.10.2022 20:39 13,3 C 12,8 C 91 % 1011,6 hPa 0,0 l/m 6,5 km/h (2 Bft) S-SW 213 0 min 0,0 UV-I 0 W/m 11,9 C 13,3 C 9,7 km/h (2 Bft)
15.10.2022 20:42 13,2 C 12,8 C 91 % 1011,6 hPa 0,0 l/m 7,1 km/h (2 Bft) S-SW 203 0 min 0,0 UV-I 0 W/m 11,8 C 12,8 C 12,9 km/h (3 Bft)
15.10.2022 20:45 13,2 C 12,2 C 91 % 1011,6 hPa 0,0 l/m 6,8 km/h (2 Bft) S-SW 198 0 min 0,0 UV-I 0 W/m 11,8 C 13,0 C 12,9 km/h (3 Bft)
15.10.2022 20:48 13,1 C 12,2 C 91 % 1011,7 hPa 0,0 l/m 6,1 km/h (2 Bft) S-SW 192 0 min 0,0 UV-I 0 W/m 11,7 C 13,1 C 9,7 km/h (2 Bft)
15.10.2022 20:51 13,1 C 12,2 C 91 % 1011,6 hPa 0,0 l/m 5,3 km/h (1 Bft) S 176 0 min 0,0 UV-I 0 W/m 11,7 C 13,1 C 9,7 km/h (2 Bft)
15.10.2022 20:54 13,1 C 12,2 C 91 % 1011,6 hPa 0,0 l/m 7,7 km/h (2 Bft) S 182 0 min 0,0 UV-I 0 W/m 11,7 C 12,3 C 11,3 km/h (2 Bft)
15.10.2022 20:57 12,9 C 12,2 C 91 % 1011,6 hPa 0,0 l/m 7,5 km/h (2 Bft) S-SW 203 0 min 0,0 UV-I 0 W/m 11,5 C 12,2 C 12,9 km/h (3 Bft)
15.10.2022 21:00 12,9 C 12,2 C 91 % 1011,8 hPa 0,0 l/m 5,7 km/h (1 Bft) SW 218 0 min 0,0 UV-I 0 W/m 11,5 C 12,9 C 9,7 km/h (2 Bft)
15.10.2022 21:03 12,9 C 12,2 C 91 % 1011,7 hPa 0,0 l/m 8,6 km/h (2 Bft) S-SW 194 0 min 0,0 UV-I 0 W/m 11,5 C 11,5 C 16,1 km/h (3 Bft)
15.10.2022 21:06 12,9 C 12,2 C 91 % 1011,8 hPa 0,0 l/m 7,7 km/h (2 Bft) S 182 0 min 0,0 UV-I 0 W/m 11,5 C 12,1 C 11,3 km/h (2 Bft)
15.10.2022 21:09 12,8 C 12,2 C 91 % 1011,8 hPa 0,0 l/m 6,4 km/h (2 Bft) S-SO 157 0 min 0,0 UV-I 0 W/m 11,4 C 12,8 C 9,7 km/h (2 Bft)
15.10.2022 21:12 12,8 C 11,7 C 91 % 1011,9 hPa 0,0 l/m 7,2 km/h (2 Bft) S-SW 203 0 min 0,0 UV-I 0 W/m 11,4 C 12,3 C 12,9 km/h (3 Bft)
15.10.2022 21:15 12,8 C 11,7 C 91 % 1011,7 hPa 0,0 l/m 8,6 km/h (2 Bft) S-SW 195 0 min 0,0 UV-I 0 W/m 11,4 C 11,4 C 12,9 km/h (3 Bft)
15.10.2022 21:18 12,8 C 11,7 C 91 % 1011,9 hPa 0,0 l/m 8,5 km/h (2 Bft) S-SW 196 0 min 0,0 UV-I 0 W/m 11,4 C 11,5 C 11,3 km/h (2 Bft)
15.10.2022 21:21 12,8 C 11,7 C 91 % 1011,8 hPa 0,0 l/m 6,3 km/h (2 Bft) S-SW 196 0 min 0,0 UV-I 0 W/m 11,4 C 12,8 C 9,7 km/h (2 Bft)
15.10.2022 21:24 12,7 C 11,7 C 91 % 1011,8 hPa 0,0 l/m 5,6 km/h (1 Bft) S-SW 194 0 min 0,0 UV-I 0 W/m 11,3 C 12,7 C 8,0 km/h (2 Bft)
15.10.2022 21:27 12,6 C 11,7 C 92 % 1011,9 hPa 0,0 l/m 5,2 km/h (1 Bft) S 190 0 min 0,0 UV-I 0 W/m 11,3 C 12,6 C 8,0 km/h (2 Bft)
15.10.2022 21:30 12,6 C 11,1 C 91 % 1011,9 hPa 0,0 l/m 4,8 km/h (1 Bft) S 184 0 min 0,0 UV-I 0 W/m 11,2 C 12,6 C 9,7 km/h (2 Bft)
15.10.2022 21:33 12,6 C 11,1 C 92 % 1011,9 hPa 0,0 l/m 5,8 km/h (2 Bft) S 172 0 min 0,0 UV-I 0 W/m 11,3 C 12,6 C 9,7 km/h (2 Bft)
15.10.2022 21:36 12,5 C 11,1 C 92 % 1011,9 hPa 0,0 l/m 5,4 km/h (1 Bft) S 183 0 min 0,0 UV-I 0 W/m 11,2 C 12,5 C 11,3 km/h (2 Bft)
15.10.2022 21:39 12,4 C 11,1 C 92 % 1011,8 hPa 0,0 l/m 6,0 km/h (2 Bft) S-SO 167 0 min 0,0 UV-I 0 W/m 11,1 C 12,4 C 11,3 km/h (2 Bft)
15.10.2022 21:42 12,4 C 11,1 C 92 % 1011,9 hPa 0,0 l/m 6,7 km/h (2 Bft) S 176 0 min 0,0 UV-I 0 W/m 11,1 C 12,2 C 14,5 km/h (3 Bft)
15.10.2022 21:45 12,3 C 11,1 C 92 % 1011,9 hPa 0,0 l/m 5,9 km/h (2 Bft) S-SW 198 0 min 0,0 UV-I 0 W/m 11,0 C 12,3 C 12,9 km/h (3 Bft)
15.10.2022 21:48 12,3 C 11,1 C 92 % 1011,9 hPa 0,0 l/m 5,9 km/h (2 Bft) S 180 0 min 0,0 UV-I 0 W/m 11,0 C 12,3 C 9,7 km/h (2 Bft)
15.10.2022 21:51 12,2 C 11,1 C 92 % 1012,0 hPa 0,0 l/m 5,5 km/h (1 Bft) S 179 0 min 0,0 UV-I 0 W/m 10,9 C 12,2 C 11,3 km/h (2 Bft)
15.10.2022 21:54 12,2 C 11,1 C 92 % 1012,0 hPa 0,0 l/m 6,5 km/h (2 Bft) S 180 0 min 0,0 UV-I 0 W/m 10,9 C 12,2 C 12,9 km/h (3 Bft)
15.10.2022 21:57 12,3 C 11,1 C 92 % 1012,0 hPa 0,0 l/m 6,8 km/h (2 Bft) S-SW 198 0 min 0,0 UV-I 0 W/m 11,0 C 12,0 C 11,3 km/h (2 Bft)
15.10.2022 22:00 12,3 C 11,1 C 92 % 1012,0 hPa 0,0 l/m 6,5 km/h (2 Bft) S 191 0 min 0,0 UV-I 0 W/m 11,0 C 12,3 C 9,7 km/h (2 Bft)
15.10.2022 22:03 12,3 C 11,7 C 92 % 1012,1 hPa 0,0 l/m 9,1 km/h (2 Bft) S-SW 192 0 min 0,0 UV-I 0 W/m 11,0 C 10,6 C 22,5 km/h (4 Bft)
15.10.2022 22:06 12,3 C 11,7 C 92 % 1012,3 hPa 0,0 l/m 10,1 km/h (2 Bft) S 180 0 min 0,0 UV-I 0 W/m 11,0 C 10,1 C 17,7 km/h (3 Bft)
15.10.2022 22:09 12,4 C 11,7 C 92 % 1012,3 hPa 0,0 l/m 10,5 km/h (2 Bft) S-SO 164 0 min 0,0 UV-I 0 W/m 11,1 C 10,0 C 17,7 km/h (3 Bft)
15.10.2022 22:12 12,5 C 11,7 C 91 % 1012,2 hPa 0,0 l/m 11,8 km/h (2 Bft) S 191 0 min 0,0 UV-I 0 W/m 11,1 C 9,5 C 17,7 km/h (3 Bft)
15.10.2022 22:15 12,6 C 11,7 C 91 % 1012,3 hPa 0,0 l/m 12,2 km/h (2 Bft) S 188 0 min 0,0 UV-I 0 W/m 11,2 C 9,4 C 19,3 km/h (3 Bft)
15.10.2022 22:18 12,6 C 11,7 C 91 % 1012,2 hPa 0,0 l/m 10,8 km/h (2 Bft) S 180 0 min 0,0 UV-I 0 W/m 11,2 C 10,1 C 16,1 km/h (3 Bft)
15.10.2022 22:21 12,6 C 11,7 C 91 % 1012,3 hPa 0,0 l/m 10,3 km/h (2 Bft) S-SW 198 0 min 0,0 UV-I 0 W/m 11,2 C 10,3 C 19,3 km/h (3 Bft)
15.10.2022 22:24 12,5 C 11,7 C 90 % 1012,3 hPa 0,0 l/m 6,7 km/h (2 Bft) S 183 0 min 0,0 UV-I 0 W/m 10,9 C 12,3 C 12,9 km/h (3 Bft)
15.10.2022 22:27 12,4 C 11,7 C 90 % 1012,4 hPa 0,0 l/m 9,6 km/h (2 Bft) S-SO 167 0 min 0,0 UV-I 0 W/m 10,8 C 10,5 C 16,1 km/h (3 Bft)
15.10.2022 22:30 12,4 C 11,7 C 90 % 1012,5 hPa 0,0 l/m 7,4 km/h (2 Bft) S 182 0 min 0,0 UV-I 0 W/m 10,8 C 11,7 C 14,5 km/h (3 Bft)
15.10.2022 22:33 12,4 C 11,7 C 90 % 1012,6 hPa 0,0 l/m 7,8 km/h (2 Bft) S 173 0 min 0,0 UV-I 0 W/m 10,8 C 11,5 C 12,9 km/h (3 Bft)
15.10.2022 22:36 12,4 C 11,7 C 90 % 1012,7 hPa 0,0 l/m 8,1 km/h (2 Bft) S-SW 192 0 min 0,0 UV-I 0 W/m 10,8 C 11,3 C 16,1 km/h (3 Bft)
15.10.2022 22:39 12,4 C 11,7 C 89 % 1012,7 hPa 0,0 l/m 10,4 km/h (2 Bft) S 176 0 min 0,0 UV-I 0 W/m 10,6 C 10,0 C 20,9 km/h (4 Bft)
15.10.2022 22:42 12,3 C 11,7 C 89 % 1012,8 hPa 0,0 l/m 9,5 km/h (2 Bft) S 182 0 min 0,0 UV-I 0 W/m 10,5 C 10,4 C 17,7 km/h (3 Bft)
15.10.2022 22:45 12,4 C 11,7 C 89 % 1012,8 hPa 0,0 l/m 12,1 km/h (2 Bft) S-SO 166 0 min 0,0 UV-I 0 W/m 10,6 C 9,2 C 17,7 km/h (3 Bft)
15.10.2022 22:48 12,4 C 11,7 C 89 % 1012,9 hPa 0,0 l/m 11,2 km/h (2 Bft) S 190 0 min 0,0 UV-I 0 W/m 10,6 C 9,6 C 19,3 km/h (3 Bft)
15.10.2022 22:51 12,5 C 11,7 C 89 % 1012,9 hPa 0,0 l/m 11,7 km/h (2 Bft) S 174 0 min 0,0 UV-I 0 W/m 10,7 C 9,5 C 22,5 km/h (4 Bft)
15.10.2022 22:54 12,5 C 11,7 C 89 % 1012,8 hPa 0,0 l/m 13,5 km/h (3 Bft) S 172 0 min 0,0 UV-I 0 W/m 10,7 C 8,8 C 20,9 km/h (4 Bft)
15.10.2022 22:57 12,4 C 11,7 C 89 % 1012,9 hPa 0,0 l/m 9,6 km/h (2 Bft) S-SO 155 0 min 0,0 UV-I 0 W/m 10,6 C 10,5 C 20,9 km/h (4 Bft)
15.10.2022 23:00 12,4 C 11,7 C 89 % 1012,8 hPa 0,0 l/m 8,5 km/h (2 Bft) S-SW 207 0 min 0,0 UV-I 0 W/m 10,6 C 11,1 C 14,5 km/h (3 Bft)
15.10.2022 23:03 12,4 C 11,1 C 89 % 1012,7 hPa 0,0 l/m 7,4 km/h (2 Bft) S 171 0 min 0,0 UV-I 0 W/m 10,6 C 11,7 C 14,5 km/h (3 Bft)
15.10.2022 23:06 12,3 C 11,1 C 89 % 1012,7 hPa 0,0 l/m 7,6 km/h (2 Bft) S-SW 205 0 min 0,0 UV-I 0 W/m 10,5 C 11,5 C 11,3 km/h (2 Bft)
15.10.2022 23:09 12,2 C 11,1 C 89 % 1012,9 hPa 0,0 l/m 9,5 km/h (2 Bft) S-SW 205 0 min 0,0 UV-I 0 W/m 10,4 C 10,3 C 14,5 km/h (3 Bft)
15.10.2022 23:12 12,2 C 11,1 C 90 % 1012,8 hPa 0,0 l/m 9,9 km/h (2 Bft) S-SW 206 0 min 0,0 UV-I 0 W/m 10,6 C 10,1 C 14,5 km/h (3 Bft)
15.10.2022 23:15 12,2 C 11,1 C 90 % 1012,9 hPa 0,0 l/m 7,6 km/h (2 Bft) S 175 0 min 0,0 UV-I 0 W/m 10,6 C 11,4 C 16,1 km/h (3 Bft)
15.10.2022 23:18 12,1 C 11,1 C 90 % 1013,0 hPa 0,0 l/m 5,1 km/h (1 Bft) S 182 0 min 0,0 UV-I 0 W/m 10,5 C 12,1 C 8,0 km/h (2 Bft)
15.10.2022 23:21 12,1 C 11,1 C 90 % 1013,0 hPa 0,0 l/m 5,1 km/h (1 Bft) S 186 0 min 0,0 UV-I 0 W/m 10,5 C 12,1 C 8,0 km/h (2 Bft)
15.10.2022 23:24 12,1 C 11,1 C 90 % 1013,0 hPa 0,0 l/m 4,8 km/h (1 Bft) S 184 0 min 0,0 UV-I 0 W/m 10,5 C 12,1 C 6,4 km/h (2 Bft)
15.10.2022 23:27 12,1 C 11,7 C 91 % 1013,0 hPa 0,0 l/m 6,2 km/h (2 Bft) S 191 0 min 0,0 UV-I 0 W/m 10,7 C 12,1 C 11,3 km/h (2 Bft)
15.10.2022 23:30 12,2 C 11,7 C 91 % 1013,0 hPa 0,0 l/m 6,1 km/h (2 Bft) S 189 0 min 0,0 UV-I 0 W/m 10,8 C 12,2 C 11,3 km/h (2 Bft)
15.10.2022 23:33 12,2 C 11,7 C 91 % 1013,0 hPa 0,0 l/m 4,7 km/h (1 Bft) S-SO 163 0 min 0,0 UV-I 0 W/m 10,8 C 12,2 C 8,0 km/h (2 Bft)
15.10.2022 23:36 12,2 C 11,7 C 91 % 1013,1 hPa 0,0 l/m 4,8 km/h (1 Bft) S 180 0 min 0,0 UV-I 0 W/m 10,8 C 12,2 C 8,0 km/h (2 Bft)
15.10.2022 23:39 12,3 C 11,7 C 91 % 1013,3 hPa 0,0 l/m 7,2 km/h (2 Bft) S 185 0 min 0,0 UV-I 0 W/m 10,9 C 11,8 C 11,3 km/h (2 Bft)
15.10.2022 23:42 12,3 C 11,7 C 91 % 1013,1 hPa 0,0 l/m 8,8 km/h (2 Bft) S 180 0 min 0,0 UV-I 0 W/m 10,9 C 10,8 C 14,5 km/h (3 Bft)
15.10.2022 23:45 12,3 C 11,7 C 91 % 1013,0 hPa 0,0 l/m 6,7 km/h (2 Bft) S-SW 198 0 min 0,0 UV-I 0 W/m 10,9 C 12,1 C 14,5 km/h (3 Bft)
15.10.2022 23:48 12,4 C 11,7 C 91 % 1013,0 hPa 0,0 l/m 7,4 km/h (2 Bft) S-SO 161 0 min 0,0 UV-I 0 W/m 11,0 C 11,7 C 14,5 km/h (3 Bft)
15.10.2022 23:51 12,3 C 11,7 C 91 % 1012,9 hPa 0,0 l/m 8,1 km/h (2 Bft) S-SO 163 0 min 0,0 UV-I 0 W/m 10,9 C 11,2 C 16,1 km/h (3 Bft)
15.10.2022 23:54 12,3 C 11,7 C 91 % 1013,1 hPa 0,0 l/m 9,3 km/h (2 Bft) S 186 0 min 0,0 UV-I 0 W/m 10,9 C 10,5 C 14,5 km/h (3 Bft)
15.10.2022 23:57 12,3 C 11,7 C 90 % 1013,1 hPa 0,0 l/m 8,6 km/h (2 Bft) S-SO 165 0 min 0,0 UV-I 0 W/m 10,7 C 10,9 C 14,5 km/h (3 Bft)
_ Min-Zeit 05:30 05:06 16:45 15:06 - 00:39 - - - - - 05:21 10:12 01:27
Minimum _ 11,0 C 10,6 C 87 % 1008,6 hPa - 0,0 km/h (0 Bft) - - - - - 10,3 C 8,6 C 0,0 km/h (0 Bft)
_ Max-Zeit 15:54 15:57 01:15 23:39 01:00 16:21 - - 00:00 14:18 14:18 15:54 18:00 15:57
Maximum _ 15,7 C 16,1 C 95 % 1013,3 hPa 0,2 l/m 24,5 km/h
S-SW (4 Bft)
- - 0 min 1,6 UV-I 252 W/m 14,1 C 14,2 C 43,5 km/h
S (6 Bft)
Durchschnitt _ 13,0 C 12,5 C 92 % 1009,9 hPa #1,2 l/m 8,4 km/h (2 Bft) S - #0 min. 0,9 UV-I 107 W/m 11,7 C 11,4 C 14,7 km/h (3 Bft)